GFSNE_925_temp_057.txt.gz
Temp
9 9 8 7 6 7 7 7 5 5 3 7 8 8 8 8 8 7 7 6 5 4 4 3 3 2 1 0 0 -0 -1 -1 -1 -1 -1 -1 -0 0
8 7 7 6 6 6 6 6 5 5 4 6 7 7 7 7 7 7 7 6 5 5 4 3 3 2 2 1 1 -0 -1 -1 -1 -2 -2 -1 -1 -0
6 6 6 6 6 5 5 5 5 6 5 6 6 7 7 7 7 6 6 6 5 5 4 4 3 2 2 2 1 1 0 -0 -1 -2 -2 -2 -2 -1
6 5 6 5 5 5 4 4 5 6 6 5 5 5 6 6 6 6 6 6 5 5 4 4 3 3 2 2 1 1 1 0 -0 -1 -2 -3 -2 -2
6 5 5 4 4 4 4 4 5 5 5 4 4 4 5 5 6 5 5 5 5 5 5 4 3 3 2 1 1 1 0 -0 -0 -1 -2 -2 -3 -3
5 4 4 4 4 4 4 4 4 4 4 4 4 4 3 4 5 4 4 5 4 4 4 3 3 2 2 1 1 -0 -0 -0 -0 -1 -1 -2 -2 -3
4 4 4 4 4 3 3 3 3 4 4 4 3 3 3 3 3 4 3 3 3 3 3 3 2 1 1 1 0 -0 -0 -0 -1 -1 -2 -2 -2 -3
4 4 4 4 4 5 5 4 4 4 3 2 2 2 2 2 3 3 3 1 0 2 2 2 1 1 1 0 -0 -0 -0 -1 -1 -2 -2 -2 -3 -3
3 3 3 3 2 2 2 2 2 2 2 2 1 1 2 2 2 2 1 1 1 1 1 1 1 0 0 0 -0 -0 -1 -1 -1 -2 -2 -2 -3 -3
2 2 2 2 1 0 0 0 0 0 -0 -1 -0 -0 -0 1 2 1 1 0 1 1 0 -1 0 -0 -0 -1 -1 -1 -1 -2 -2 -2 -2 -3 -3 -3
1 1 0 -0 -1 -1 -2 -3 -3 -2 -1 -3 -3 -3 -2 -1 -1 -1 -1 -1 -2 -0 -0 -0 -1 -1 -1 -1 -1 -2 -2 -2 -2 -2 -3 -3 -3 -3
-1 -1 -2 -3 -4 -3 -4 -5 -5 -3 -4 -4 -4 -4 -4 -3 -3 -2 -1 -1 -2 -3 -1 -2 -2 -2 -2 -2 -2 -2 -2 -2 -3 -3 -3 -3 -3 -3
-3 -3 -3 -4 -4 -4 -4 -4 -4 -4 -4 -5 -5 -4 -3 -3 -3 -3 -2 -2 -2 -3 -1 -2 -2 -2 -2 -2 -3 -3 -3 -3 -4 -4 -3 -3 -3 -3
-5 -5 -5 -4 -5 -5 -5 -5 -5 -5 -5 -5 -5 -5 -4 -4 -3 -3 -3 -2 -2 -2 -2 -2 -2 -2 -2 -3 -4 -3 -3 -4 -4 -4 -4 -3 -3 -3
-6 -6 -5 -5 -5 -6 -6 -7 -7 -7 -7 -7 -6 -6 -6 -5 -4 -3 -3 -3 -2 -2 -3 -2 -2 -2 -3 -3 -3 -3 -3 -4 -4 -4 -4 -4 -4 -3
-7 -6 -6 -6 -6 -7 -7 -8 -8 -9 -8 -8 -9 -8 -8 -8 -5 -3 -3 -3 -3 -3 -3 -3 -2 -3 -3 -3 -3 -4 -3 -5 -4 -4 -4 -4 -4 -4
-7 -7 -7 -7 -8 -8 -9 -9 -10 -10 -10 -10 -10 -10 -9 -8 -8 -4 -3 -3 -3 -4 -4 -3 -3 -3 -3 -3 -3 -3 -4 -4 -4 -4 -4 -4 -4 -4
-7 -7 -8 -8 -9 -10 -10 -10 -11 -11 -11 -11 -11 -11 -10 -9 -9 -3 -3 -3 -3 -3 -4 -3 -3 -4 -3 -3 -3 -3 -4 -4 -4 -4 -4 -4 -5 -4
-8 -8 -9 -10 -10 -11 -11 -11 -12 -12 -12 -12 -12 -12 -10 -10 -7 -3 -3 -3 -4 -4 -4 -3 -4 -3 -5 -5 -3 -3 -4 -4 -4 -4 -4 -4 -5 -5
-9 -10 -10 -11 -11 -12 -12 -13 -13 -13 -13 -13 -13 -12 -11 -11 -10 -3 -3 -3 -4 -4 -4 -4 -4 -3 -4 -6 -4 -3 -3 -4 -4 -5 -4 -5 -5 -4
-10 -11 -11 -12 -12 -13 -13 -13 -14 -14 -14 -14 -14 -13 -13 -13 -11 -7 -3 -3 -4 -4 -4 -4 -3 -3 -3 -4 -5 -4 -3 -3 -4 -4 -4 -5 -5 -5
-12 -12 -13 -13 -13 -14 -14 -15 -15 -15 -15 -15 -14 -14 -14 -14 -13 -11 -8 -3 -4 -4 -4 -4 -4 -4 -4 -4 -5 -4 -4 -4 -4 -4 -4 -5 -5 -8
-13 -13 -14 -14 -14 -15 -15 -16 -16 -16 -15 -16 -16 -16 -15 -14 -14 -13 -11 -8 -4 -4 -4 -5 -5 -4 -4 -4 -4 -4 -4 -4 -4 -4 -4 -4 -4 -4

GFSNE_925_temp_060.txt.gz
Temp
12 11 9 9 8 8 7 7 7 6 7 7 7 7 8 8 8 8 7 7 7 6 6 5 5 4 3 3 1 1 1 1 0 -0 -1 -1 -1 -0
10 9 8 7 7 6 6 5 5 5 5 6 6 6 7 7 7 7 7 7 6 6 6 5 5 4 3 3 2 2 1 0 0 -0 -1 -1 -1 -1
8 7 7 7 6 5 5 5 5 4 4 5 5 6 6 6 7 7 6 6 6 6 6 5 5 4 3 2 2 2 1 1 0 -0 -0 -1 -1 -1
7 6 6 5 5 5 5 5 5 4 4 4 4 5 5 5 5 5 5 5 5 6 5 5 5 3 3 2 2 2 1 1 1 -0 -0 -1 -1 -1
7 6 5 5 5 5 5 4 4 4 4 3 3 4 4 4 4 4 5 5 5 5 5 4 4 3 3 3 2 2 1 1 0 -0 -0 -1 -1 -2
5 5 5 5 4 4 4 4 3 3 3 3 2 2 3 4 4 4 4 4 4 4 4 4 3 3 3 2 0 1 1 1 -0 -0 -1 -1 -1 -2
5 5 4 4 3 4 3 3 3 2 2 1 1 1 1 1 2 3 3 3 3 3 3 3 2 2 0 -0 -0 1 1 -0 -0 -1 -1 -1 -2 -2
4 3 3 3 3 2 2 1 1 1 -0 -0 -0 0 -0 1 1 1 0 -0 -1 2 1 2 2 1 -0 -0 1 1 -0 -0 -1 -1 -1 -2 -2 -2
3 3 2 1 2 1 1 1 1 1 -1 -2 -2 -2 -2 -2 -2 -1 -1 -1 -0 0 1 0 1 -0 1 0 0 -0 -0 -1 -1 -1 -2 -2 -2 -2
2 2 1 0 -0 -0 0 -0 -0 -0 -1 -2 -3 -3 -3 -3 -4 -4 -4 -3 -2 -1 -1 -1 -0 -0 1 0 -0 -1 -1 -1 -2 -2 -2 -2 -3 -3
1 0 -0 -0 -1 -1 -2 -3 -3 -3 -4 -4 -4 -3 -3 -3 -3 -4 -4 -3 -2 -1 -2 -2 -1 -0 -0 -0 -1 -1 -1 -2 -2 -2 -3 -3 -3 -3
-1 -1 -1 -2 -2 -3 -4 -5 -5 -6 -5 -5 -5 -5 -5 -4 -4 -4 -4 -4 -3 -2 -2 -2 -2 -2 -3 -2 -1 -2 -2 -2 -2 -3 -3 -3 -3 -3
-2 -3 -4 -4 -4 -5 -5 -5 -6 -6 -6 -7 -7 -6 -6 -6 -6 -5 -5 -4 -4 -3 -2 -2 -3 -3 -3 -2 -2 -2 -2 -2 -3 -4 -4 -4 -4 -4
-4 -5 -5 -5 -5 -5 -6 -7 -7 -7 -8 -8 -8 -8 -8 -8 -8 -7 -7 -5 -4 -3 -3 -2 -3 -3 -3 -4 -3 -3 -3 -3 -4 -4 -4 -4 -4 -4
-5 -6 -6 -6 -6 -7 -7 -8 -8 -9 -9 -10 -10 -10 -10 -10 -9 -9 -8 -6 -4 -3 -4 -3 -3 -3 -2 -3 -3 -3 -3 -3 -3 -4 -4 -4 -4 -4
-6 -6 -6 -7 -7 -8 -9 -9 -10 -10 -10 -11 -11 -11 -11 -11 -10 -9 -9 -8 -4 -3 -3 -4 -3 -3 -3 -3 -3 -3 -3 -4 -3 -4 -4 -4 -4 -4
-7 -7 -8 -8 -9 -10 -10 -10 -11 -11 -12 -12 -12 -12 -12 -11 -11 -10 -10 -9 -6 -3 -4 -4 -4 -3 -3 -3 -3 -3 -3 -3 -3 -4 -5 -5 -4 -4
-8 -8 -9 -10 -10 -11 -11 -12 -12 -13 -13 -13 -13 -13 -13 -12 -11 -11 -11 -8 -3 -3 -4 -3 -4 -4 -4 -4 -4 -3 -3 -3 -3 -4 -5 -5 -4 -4
-8 -9 -10 -11 -11 -12 -12 -13 -13 -14 -14 -14 -14 -14 -14 -13 -13 -12 -11 -11 -3 -3 -3 -4 -4 -4 -5 -6 -3 -3 -3 -3 -3 -4 -4 -4 -4 -4
-10 -10 -11 -12 -12 -13 -13 -14 -14 -15 -15 -15 -15 -15 -15 -15 -13 -13 -12 -12 -5 -4 -4 -4 -4 -4 -5 -6 -5 -3 -3 -3 -4 -4 -4 -5 -4 -4
-11 -12 -12 -13 -13 -14 -14 -15 -15 -15 -16 -16 -16 -16 -16 -16 -14 -14 -13 -12 -10 -4 -4 -5 -4 -4 -4 -4 -5 -4 -4 -4 -4 -4 -4 -5 -5 -5
-12 -12 -13 -14 -14 -15 -15 -16 -16 -16 -16 -16 -17 -16 -17 -17 -15 -14 -14 -13 -11 -8 -4 -4 -4 -4 -5 -5 -5 -4 -4 -4 -4 -4 -4 -4 -5 -8
-13 -14 -14 -15 -15 -16 -16 -17 -17 -17 -17 -17 -17 -17 -17 -17 -16 -16 -15 -14 -13 -11 -5 -5 -5 -5 -4 -4 -4 -4 -4 -4 -4 -4 -4 -4 -4 -4

GFSNE_925_temp_063.txt.gz
Temp
12 12 11 12 10 9 9 9 8 6 6 7 8 8 8 7 7 7 7 8 7 7 6 6 6 6 6 5 4 3 3 2 2 2 1 1 0 0
12 11 11 10 9 8 8 7 6 5 5 6 6 7 7 7 6 6 6 7 7 7 6 6 5 5 5 5 4 4 2 2 2 1 1 1 0 0
11 10 9 9 8 7 6 6 5 5 4 4 4 5 5 6 6 6 5 5 5 5 5 6 5 5 5 4 3 3 2 2 1 1 1 1 0 0
10 8 8 7 6 5 5 5 5 5 4 3 4 4 4 5 5 5 5 4 5 5 5 5 4 4 4 4 3 2 2 1 2 1 1 0 0 -0
9 7 7 6 5 5 5 4 4 4 3 3 3 3 3 3 3 4 4 4 4 4 4 4 4 4 4 3 3 3 1 -0 1 1 1 0 -0 -1
7 6 6 5 5 5 4 4 3 3 2 2 1 1 1 1 1 1 2 2 2 3 3 3 3 3 3 3 3 1 1 -1 -1 -0 -0 -0 -0 -1
6 5 4 4 4 3 3 2 2 2 2 1 1 0 1 1 -0 -0 -0 -0 -0 -0 1 2 2 3 2 2 2 0 -0 -1 -1 -0 -0 -0 -1 -1
4 4 3 3 3 2 2 2 1 1 -0 -1 -1 -2 -2 -2 -2 -2 -2 -2 -1 -1 -0 -0 0 1 2 2 1 0 -1 -0 -0 -0 -0 -1 -1 -2
3 3 2 1 2 1 1 1 1 0 -1 -2 -3 -3 -4 -3 -4 -4 -4 -4 -4 -4 -3 -3 -2 -1 0 1 0 1 -0 -1 -1 -0 -1 -1 -2 -2
2 1 2 1 1 1 0 0 -0 -1 -2 -3 -4 -4 -4 -4 -4 -5 -5 -5 -5 -4 -4 -3 -3 -2 -1 -1 -0 -0 0 -1 -0 -1 -1 -2 -2 -2
1 0 0 -0 -1 -1 -1 -2 -2 -3 -3 -4 -4 -4 -4 -4 -4 -5 -5 -5 -4 -4 -4 -4 -3 -2 -2 -2 -1 -2 -1 -1 -1 -2 -2 -2 -3 -3
-1 -1 -1 -2 -2 -3 -4 -4 -5 -6 -6 -5 -5 -5 -6 -6 -6 -6 -6 -6 -5 -5 -3 -3 -3 -3 -3 -2 -2 -3 -2 -3 -2 -2 -3 -3 -3 -4
-1 -2 -2 -3 -4 -5 -5 -6 -7 -7 -7 -7 -7 -7 -7 -8 -8 -8 -8 -8 -8 -7 -5 -4 -4 -4 -4 -4 -4 -3 -3 -2 -2 -3 -3 -4 -4 -4
-2 -3 -4 -5 -5 -6 -6 -7 -7 -8 -9 -9 -9 -9 -10 -10 -9 -9 -9 -9 -9 -9 -7 -6 -4 -4 -4 -5 -4 -3 -2 -2 -3 -3 -4 -4 -4 -4
-4 -5 -6 -6 -6 -7 -7 -8 -9 -9 -10 -10 -11 -11 -11 -11 -11 -11 -10 -10 -10 -9 -7 -5 -4 -4 -4 -5 -4 -3 -3 -3 -3 -4 -4 -4 -4 -4
-6 -7 -7 -7 -7 -8 -9 -9 -10 -11 -11 -12 -12 -12 -12 -12 -12 -12 -11 -11 -11 -9 -5 -4 -4 -4 -4 -4 -3 -3 -3 -3 -3 -4 -4 -4 -4 -4
-7 -7 -8 -8 -9 -9 -10 -11 -11 -12 -12 -13 -13 -13 -13 -14 -13 -13 -12 -12 -11 -10 -7 -5 -4 -4 -4 -4 -4 -3 -3 -4 -3 -4 -4 -4 -4 -4
-8 -8 -9 -10 -10 -11 -11 -12 -13 -13 -13 -14 -14 -14 -15 -15 -14 -14 -13 -13 -11 -11 -8 -4 -5 -5 -5 -5 -4 -4 -4 -4 -3 -3 -4 -5 -4 -4
-8 -10 -10 -11 -11 -12 -12 -13 -13 -14 -15 -15 -15 -15 -16 -16 -16 -15 -14 -13 -13 -11 -11 -4 -4 -4 -5 -5 -4 -3 -4 -3 -3 -3 -4 -4 -5 -4
-10 -11 -11 -12 -13 -13 -14 -14 -15 -15 -15 -16 -16 -16 -16 -16 -17 -16 -15 -14 -14 -13 -11 -5 -4 -5 -5 -6 -5 -3 -3 -3 -3 -3 -4 -4 -5 -5
-11 -12 -12 -13 -13 -14 -14 -15 -15 -16 -16 -16 -16 -17 -17 -17 -18 -17 -16 -15 -14 -13 -11 -6 -4 -4 -4 -5 -6 -4 -3 -3 -4 -4 -4 -5 -5 -5
-12 -13 -13 -14 -14 -15 -15 -16 -17 -17 -17 -17 -17 -17 -17 -17 -18 -18 -17 -16 -15 -14 -12 -11 -6 -5 -5 -5 -5 -4 -4 -4 -4 -4 -4 -5 -5 -9
-13 -14 -14 -15 -15 -16 -16 -17 -17 -17 -17 -17 -18 -17 -17 -18 -18 -18 -18 -17 -15 -14 -13 -11 -8 -5 -5 -5 -5 -5 -4 -4 -4 -4 -4 -4 -4 -4

GFSNE_925_temp_069.txt.gz
Temp
12 13 13 11 11 11 10 9 10 8 8 9 9 9 9 8 8 7 7 7 7 7 6 6 6 6 6 6 6 6 6 5 5 5 5 5 4 4
13 13 13 10 12 12 10 9 9 9 8 8 8 7 7 7 6 6 5 5 5 5 5 5 5 5 5 5 5 5 5 5 5 4 4 4 3 3
12 12 11 12 11 11 9 9 8 7 8 6 6 6 7 5 5 4 4 4 4 5 5 5 5 5 4 4 4 4 4 4 4 4 3 3 3 3
12 12 11 10 10 9 8 8 7 6 5 5 5 5 4 4 4 3 3 3 3 3 4 4 4 4 3 3 3 3 3 3 2 3 3 3 2 2
12 12 11 9 8 8 7 6 6 5 5 4 3 3 3 3 3 3 2 2 2 3 3 3 3 2 2 2 1 1 1 0 0 0 1 2 2 2
11 10 9 9 8 8 6 6 5 4 4 3 2 2 2 3 2 2 2 1 1 1 0 0 0 -0 0 -0 -0 0 -0 -1 -1 -1 -0 0 1 2
9 9 8 8 7 7 6 5 4 3 3 2 2 2 2 2 2 1 -0 0 0 -0 -0 -0 -0 -1 -1 -1 -1 -1 -1 -2 -2 -2 -1 0 0 1
7 7 6 6 5 5 4 4 4 3 2 2 2 2 2 0 -0 -1 -1 -1 1 -1 -2 -1 -1 -1 -1 -1 -2 -2 -2 -2 -2 -2 -1 -0 -0 -1
7 5 4 4 4 3 3 2 2 2 2 1 1 0 -1 -1 -3 -2 -2 -2 -2 -2 -3 -2 -2 -1 -1 -1 -2 -3 -3 -2 -3 -2 -2 -1 -1 -1
5 4 4 2 2 2 1 1 -0 -1 -1 -1 -2 -3 -3 -4 -4 -4 -3 -4 -3 -3 -3 -2 -2 -2 -2 -2 -2 -3 -3 -3 -2 -2 -2 -2 -2 -1
2 2 2 0 -0 1 1 -1 -2 -3 -3 -3 -3 -4 -4 -4 -5 -5 -4 -4 -3 -3 -3 -3 -2 -2 -3 -3 -2 -2 -3 -3 -2 -2 -3 -2 -2 -1
-1 -1 -1 0 -0 -1 -1 -2 -2 -4 -5 -5 -5 -5 -5 -6 -5 -6 -6 -6 -5 -4 -3 -5 -4 -4 -3 -3 -2 -2 -2 -3 -3 -3 -3 -2 -2 -1
-2 -3 -3 -2 -2 -2 -2 -4 -4 -6 -6 -6 -7 -7 -7 -7 -7 -8 -8 -8 -7 -6 -6 -7 -6 -6 -6 -6 -4 -3 -2 -3 -4 -3 -3 -3 -3 -2
-3 -4 -4 -4 -4 -5 -5 -5 -5 -6 -7 -8 -8 -7 -8 -8 -9 -9 -9 -9 -9 -8 -8 -9 -8 -7 -7 -7 -5 -3 -2 -3 -4 -3 -4 -3 -3 -3
-4 -4 -5 -6 -6 -6 -6 -7 -7 -8 -9 -8 -9 -9 -9 -10 -10 -10 -10 -10 -10 -9 -9 -9 -9 -8 -8 -7 -6 -4 -3 -2 -3 -3 -3 -3 -3 -3
-5 -6 -6 -7 -7 -8 -8 -8 -9 -10 -10 -10 -10 -10 -11 -11 -11 -11 -11 -10 -10 -9 -9 -9 -9 -9 -8 -7 -6 -5 -3 -3 -3 -3 -3 -3 -4 -4
-6 -7 -7 -8 -8 -8 -9 -9 -10 -10 -10 -11 -11 -11 -11 -11 -11 -12 -12 -12 -11 -10 -9 -9 -9 -9 -8 -8 -5 -4 -3 -3 -2 -3 -3 -3 -4 -4
-7 -7 -8 -8 -8 -9 -9 -10 -10 -11 -11 -12 -12 -12 -12 -12 -12 -13 -12 -12 -12 -11 -10 -10 -9 -8 -6 -5 -4 -3 -3 -3 -3 -3 -3 -3 -3 -3
-8 -8 -9 -10 -9 -10 -10 -11 -11 -12 -13 -13 -13 -13 -14 -13 -14 -13 -13 -13 -13 -12 -11 -11 -10 -8 -6 -5 -3 -4 -3 -4 -4 -4 -3 -3 -3 -3
-8 -9 -9 -10 -10 -11 -11 -12 -13 -13 -13 -14 -14 -15 -15 -15 -14 -14 -14 -14 -13 -13 -13 -11 -10 -9 -9 -8 -8 -4 -4 -4 -4 -3 -3 -3 -4 -4
-9 -10 -11 -11 -12 -12 -13 -14 -14 -14 -15 -15 -16 -16 -16 -16 -15 -15 -15 -15 -16 -14 -12 -12 -11 -12 -11 -10 -8 -5 -5 -4 -4 -3 -3 -3 -3 -3
-11 -11 -12 -13 -14 -14 -14 -15 -15 -15 -15 -16 -16 -17 -17 -16 -16 -16 -16 -15 -15 -14 -14 -13 -12 -11 -11 -9 -7 -4 -4 -5 -4 -4 -4 -4 -3 -2
-14 -14 -14 -15 -15 -16 -16 -16 -16 -17 -17 -17 -18 -17 -17 -17 -17 -17 -16 -16 -15 -15 -14 -14 -13 -12 -11 -10 -9 -4 -4 -5 -4 -5 -5 -4 -4 -4

GFSNE_925_temp_075.txt.gz
Temp
15 15 15 15 16 15 15 15 14 14 14 13 11 12 12 12 11 11 10 9 9 9 9 8 8 8 7 7 7 7 7 7 6 6 6 5 5 5
15 15 15 15 15 15 14 14 13 12 13 13 12 12 11 11 10 9 9 8 8 8 8 8 7 7 6 6 6 6 6 6 6 5 5 5 4 4
15 15 15 15 15 15 14 13 12 11 11 11 11 11 10 9 8 8 8 7 7 7 7 6 6 6 6 6 6 6 5 5 5 4 4 4 3 2
16 16 16 15 15 14 13 12 11 11 10 10 8 8 8 7 7 7 8 8 8 8 7 6 6 6 5 5 5 5 5 5 4 4 4 3 3 1
16 16 16 15 14 12 12 11 11 10 10 9 7 7 6 7 7 6 6 6 6 7 6 6 5 5 5 5 5 5 4 4 3 2 2 1 1 -0
16 16 15 14 12 11 11 11 11 9 8 8 6 6 6 6 5 5 5 5 6 7 7 6 5 4 3 3 3 3 3 2 1 1 -0 -1 -1 -2
15 14 13 13 12 12 11 10 9 8 7 6 6 6 5 5 5 5 5 6 7 6 6 5 5 4 4 4 3 3 3 1 1 0 -0 -1 -2 -2
12 12 11 11 12 11 11 11 10 8 6 6 5 5 5 5 5 5 5 5 5 6 5 5 4 4 3 3 4 3 2 1 0 -0 -1 -2 -2 -2
12 11 11 11 11 10 8 8 6 6 6 5 4 3 3 4 5 4 4 4 4 5 4 4 3 3 2 3 3 2 1 1 -0 -1 -1 -1 -2 -1
11 11 10 9 7 7 6 5 4 3 2 2 3 2 1 2 3 3 3 3 3 2 2 2 2 2 2 2 2 1 1 -0 -1 -1 -1 -2 -2 -2
8 7 6 5 3 4 4 2 1 0 1 1 -1 -2 -1 1 1 1 1 1 1 2 2 2 2 1 1 1 0 1 -0 -0 -1 -1 -1 -2 -2 -3
3 1 1 2 0 1 2 -0 -2 -3 -3 -3 -1 -0 -0 -1 -1 -1 -1 -0 0 0 1 0 0 -0 -0 0 -0 -1 -1 -1 -1 -1 -1 -2 -2 -2
-2 -2 -2 -2 -2 -2 -2 -2 -3 -4 -2 -1 -1 -1 -2 -2 -2 -3 -3 -3 -2 -2 -1 -3 -3 -3 -3 -2 -2 -2 -2 -2 -1 -1 -1 -1 -2 -2
-3 -4 -4 -3 -3 -3 -3 -4 -4 -3 -4 -3 -2 -2 -2 -2 -3 -3 -3 -4 -4 -4 -4 -5 -5 -5 -5 -4 -3 -3 -2 -2 -2 -2 -1 -2 -2 -2
-4 -4 -5 -4 -4 -4 -3 -3 -5 -5 -5 -4 -4 -3 -3 -4 -5 -5 -5 -5 -6 -6 -5 -6 -6 -6 -6 -5 -4 -4 -3 -3 -3 -3 -2 -2 -2 -2
-5 -6 -6 -6 -6 -5 -5 -6 -6 -6 -6 -5 -6 -5 -6 -6 -6 -6 -6 -7 -7 -7 -6 -6 -6 -6 -6 -6 -6 -5 -4 -3 -3 -3 -2 -2 -2 -2
-6 -6 -6 -6 -6 -6 -6 -7 -7 -7 -7 -7 -7 -7 -7 -7 -7 -7 -7 -7 -8 -7 -6 -6 -6 -6 -6 -6 -6 -5 -5 -4 -3 -3 -3 -2 -2 -2
-5 -5 -4 -4 -5 -5 -6 -6 -7 -7 -7 -8 -8 -8 -8 -8 -8 -8 -8 -8 -8 -7 -7 -7 -6 -6 -6 -6 -5 -5 -4 -4 -4 -4 -3 -2 -2 -2
-4 -4 -5 -5 -6 -6 -7 -7 -7 -9 -10 -9 -9 -9 -9 -10 -10 -10 -9 -9 -8 -8 -8 -7 -7 -7 -6 -6 -5 -5 -6 -7 -7 -7 -6 -2 -2 -1
-6 -6 -6 -6 -7 -7 -8 -8 -9 -9 -10 -10 -10 -10 -11 -11 -11 -10 -10 -10 -10 -10 -9 -9 -8 -7 -8 -8 -9 -9 -9 -8 -8 -7 -6 -4 -2 -3
-7 -7 -7 -8 -9 -9 -9 -10 -10 -10 -11 -11 -11 -11 -11 -12 -12 -11 -11 -11 -12 -11 -10 -10 -9 -9 -9 -9 -8 -8 -7 -7 -7 -7 -7 -6 -3 -3
-9 -9 -9 -10 -11 -11 -11 -11 -11 -11 -11 -12 -12 -12 -13 -13 -13 -13 -12 -12 -12 -12 -12 -11 -11 -11 -10 -10 -9 -8 -7 -7 -7 -7 -7 -6 -3 -2
-11 -11 -11 -12 -12 -12 -12 -12 -13 -13 -13 -13 -14 -14 -14 -14 -14 -14 -13 -13 -13 -13 -12 -12 -12 -12 -11 -10 -10 -9 -8 -8 -7 -8 -7 -5 -4 -3

GFSNE_925_temp_078.txt.gz
Temp
15 15 15 15 15 15 16 15 14 12 11 14 13 13 12 12 13 12 11 11 11 11 11 10 10 9 9 8 8 8 7 7 7 6 6 6 5 5
14 14 14 15 15 15 15 15 15 14 13 15 13 13 13 12 12 12 11 11 11 10 10 9 9 8 8 8 7 7 7 6 6 6 5 5 5 4
14 14 14 15 15 15 15 15 15 14 13 13 13 13 12 12 12 11 10 10 10 9 9 8 8 8 7 7 6 6 6 5 5 5 5 5 4 3
14 14 14 14 15 14 14 14 14 14 13 12 11 12 11 11 11 10 9 8 8 8 8 8 7 7 7 6 6 5 5 5 5 5 4 4 4 4
15 15 15 14 14 14 14 14 13 12 12 11 11 10 10 10 9 8 8 7 8 8 8 7 7 6 6 5 5 5 5 5 5 3 2 2 2 2
15 15 15 15 15 15 14 14 12 11 11 11 10 8 8 7 7 6 5 6 7 7 7 7 6 6 6 5 4 4 4 4 3 2 2 2 1 0
15 15 15 16 16 15 15 12 11 11 10 10 9 7 6 6 5 5 5 5 5 5 6 6 6 6 5 4 4 4 4 3 3 2 1 1 0 -1
15 15 15 15 15 15 15 14 12 11 10 9 9 7 6 6 5 4 4 3 2 4 4 6 5 5 4 4 4 3 3 3 2 1 1 1 -0 -1
15 14 14 14 14 13 11 11 9 9 9 8 7 5 4 3 3 2 1 1 -0 1 3 4 4 4 3 3 3 3 3 2 2 1 0 -0 -1 -1
14 13 13 12 12 11 10 7 4 3 4 5 5 3 2 2 3 1 1 -0 -1 1 2 2 3 2 2 2 2 2 2 1 1 0 -0 -1 -1 -1
12 12 11 10 9 7 5 3 0 -0 0 1 1 1 1 0 -0 -1 -2 -1 -0 1 2 1 2 1 1 1 1 1 1 -0 -0 -1 -1 -1 -1 -1
7 6 4 5 4 3 3 1 -2 -2 -1 -1 -2 -2 -2 -2 -2 -1 -1 -0 -0 -0 -1 -0 -0 -1 -1 0 0 0 -0 -0 -1 -1 -1 -1 -1 -1
1 -0 -1 -1 -1 0 0 -1 -3 -4 -4 -3 -3 -2 -1 -2 -2 -2 -2 -2 -2 -2 -3 -3 -4 -3 -4 -4 -3 -3 -2 -2 -2 -2 -2 -2 -2 -2
-2 -3 -3 -2 -1 -1 -2 -4 -4 -4 -3 -3 -2 -2 -2 -2 -3 -3 -3 -4 -4 -5 -5 -5 -5 -5 -6 -6 -6 -5 -5 -4 -4 -3 -3 -3 -3 -2
-3 -4 -5 -5 -5 -5 -5 -5 -5 -5 -5 -5 -5 -5 -5 -5 -5 -5 -6 -5 -5 -6 -6 -6 -6 -6 -6 -7 -7 -6 -6 -6 -5 -4 -4 -4 -3 -3
-5 -5 -5 -5 -6 -6 -6 -6 -6 -6 -5 -6 -6 -6 -6 -6 -6 -7 -7 -7 -7 -7 -7 -7 -6 -6 -6 -6 -6 -6 -6 -6 -6 -5 -5 -4 -4 -3
-6 -6 -6 -6 -6 -6 -6 -7 -7 -7 -7 -7 -7 -8 -8 -8 -8 -8 -8 -8 -8 -8 -8 -7 -7 -6 -6 -6 -6 -6 -6 -6 -6 -5 -5 -5 -5 -4
-5 -5 -4 -5 -5 -6 -6 -7 -8 -8 -9 -8 -8 -8 -9 -9 -9 -9 -9 -9 -9 -9 -8 -8 -8 -8 -8 -7 -7 -7 -6 -7 -8 -8 -8 -7 -6 -5
-5 -5 -6 -6 -7 -7 -8 -8 -9 -9 -9 -9 -10 -10 -10 -10 -10 -10 -10 -10 -10 -10 -10 -10 -10 -9 -9 -10 -9 -9 -9 -9 -9 -9 -8 -8 -7 -6
-6 -7 -7 -8 -8 -8 -9 -9 -10 -10 -10 -10 -11 -11 -11 -11 -11 -11 -11 -11 -11 -11 -11 -11 -10 -10 -11 -11 -11 -10 -9 -9 -9 -9 -9 -7 -7 -6
-8 -9 -9 -9 -9 -10 -10 -10 -10 -11 -11 -11 -12 -12 -12 -12 -13 -13 -13 -13 -12 -12 -12 -12 -12 -11 -11 -11 -11 -11 -10 -10 -9 -9 -9 -8 -8 -7
-10 -10 -11 -11 -11 -11 -11 -11 -12 -12 -12 -13 -13 -13 -13 -14 -14 -14 -14 -13 -13 -13 -13 -13 -12 -12 -12 -11 -11 -11 -11 -11 -10 -9 -8 -8 -8 -7
-12 -12 -12 -12 -13 -13 -13 -13 -13 -14 -14 -14 -14 -15 -15 -15 -14 -14 -14 -14 -14 -14 -14 -13 -13 -13 -13 -12 -12 -12 -11 -11 -10 -9 -9 -9 -8 -6

GFSNE_925_temp_081.txt.gz
Temp
15 15 15 16 16 15 15 15 14 13 12 15 14 16 16 15 15 14 13 14 14 13 12 11 11 11 11 10 10 10 9 8 8 7 7 6 6 5
15 15 15 15 15 15 15 15 15 13 13 15 15 15 15 15 15 14 14 13 13 12 11 12 11 10 10 10 9 9 8 7 7 6 6 5 5 4
13 14 14 15 14 15 14 15 14 13 13 13 14 14 15 14 14 14 13 12 12 12 11 10 10 10 9 9 8 8 7 6 6 5 5 5 5 5
13 13 13 13 14 14 14 14 13 13 13 12 13 13 13 14 13 13 12 11 11 11 10 9 9 8 8 7 7 6 6 6 5 5 5 5 4 4
13 13 13 13 13 13 13 13 13 13 12 12 13 13 13 12 11 11 10 10 9 9 8 8 7 7 6 6 6 5 5 5 5 5 4 3 2 2
13 13 13 13 13 13 13 13 13 12 12 11 12 11 11 10 10 8 7 8 7 6 6 7 6 5 5 5 5 5 4 4 4 3 3 2 2 2
13 13 13 13 13 14 13 13 12 12 12 11 11 11 8 7 8 8 7 6 5 5 5 5 5 4 4 4 4 3 3 3 4 3 3 2 2 1
12 13 13 13 14 14 14 15 13 12 12 11 12 11 9 8 8 7 6 4 3 4 4 2 3 3 1 3 3 3 3 3 3 3 2 2 1 1
13 13 13 13 14 14 14 14 13 12 12 11 10 11 9 9 7 5 4 2 0 0 1 1 1 -0 1 2 2 3 3 2 2 2 1 1 0 -0
13 13 13 14 14 14 13 11 9 8 8 7 7 7 6 5 5 4 2 1 -0 -0 -1 -1 -1 1 2 1 2 2 2 2 1 1 -0 -0 -0 -1
13 14 14 14 14 13 11 8 4 2 2 3 3 2 2 2 2 1 -0 -1 -2 -2 -2 -2 -0 0 1 2 1 1 1 0 -0 -1 -1 -1 -1 -1
11 11 11 12 11 10 10 5 -0 -2 -1 -1 -1 -1 -1 -2 -2 -1 -2 -2 -2 -3 -3 -2 -1 -1 -2 -1 -0 -1 -1 -1 -1 -2 -2 -2 -2 -2
8 6 5 5 3 3 3 1 0 -2 -3 -3 -3 -4 -4 -3 -3 -3 -2 -2 -2 -4 -5 -4 -4 -4 -4 -4 -4 -2 -3 -3 -4 -4 -4 -3 -3 -3
-0 -1 -1 -1 -1 -1 -2 -3 -4 -4 -4 -5 -5 -5 -5 -5 -5 -5 -5 -5 -6 -6 -6 -6 -6 -6 -6 -6 -6 -6 -6 -6 -6 -6 -5 -5 -5 -4
-3 -3 -4 -4 -5 -5 -4 -4 -4 -5 -5 -5 -6 -6 -6 -6 -6 -6 -7 -7 -6 -6 -6 -6 -6 -6 -6 -7 -7 -7 -7 -7 -6 -6 -5 -6 -5 -5
-6 -6 -6 -5 -5 -5 -5 -5 -5 -5 -5 -6 -6 -7 -7 -7 -7 -8 -8 -8 -7 -7 -7 -7 -7 -7 -7 -7 -7 -7 -7 -7 -7 -7 -7 -7 -7 -6
-5 -5 -6 -6 -6 -6 -7 -7 -7 -7 -7 -7 -8 -8 -8 -8 -9 -9 -9 -9 -9 -9 -9 -9 -9 -8 -8 -8 -8 -8 -8 -8 -8 -9 -9 -9 -8 -8
-5 -5 -6 -6 -6 -7 -8 -8 -8 -8 -9 -9 -9 -9 -10 -10 -10 -10 -10 -10 -10 -10 -10 -10 -10 -10 -10 -9 -9 -9 -10 -10 -10 -10 -9 -9 -9 -8
-6 -7 -7 -7 -8 -8 -9 -9 -9 -10 -10 -10 -10 -10 -10 -11 -11 -11 -12 -12 -12 -12 -12 -11 -11 -11 -11 -12 -12 -11 -11 -11 -10 -10 -10 -10 -10 -9
-8 -8 -8 -9 -9 -9 -10 -10 -11 -11 -11 -11 -11 -12 -12 -12 -12 -13 -13 -13 -13 -13 -12 -12 -12 -12 -12 -13 -12 -12 -12 -11 -11 -11 -11 -10 -10 -9
-10 -10 -10 -10 -10 -11 -11 -11 -11 -12 -12 -12 -13 -13 -13 -13 -13 -13 -13 -14 -14 -14 -13 -13 -13 -13 -13 -13 -13 -13 -12 -12 -11 -11 -11 -11 -10 -10
-11 -12 -12 -12 -12 -12 -12 -12 -13 -13 -13 -14 -14 -14 -14 -14 -14 -14 -14 -14 -14 -14 -14 -14 -14 -14 -14 -13 -13 -13 -13 -13 -12 -12 -11 -10 -10 -9
-13 -13 -13 -13 -14 -14 -14 -14 -14 -14 -15 -15 -15 -15 -15 -15 -15 -15 -15 -15 -15 -15 -15 -15 -15 -15 -14 -14 -14 -14 -14 -13 -13 -12 -11 -10 -10 -9

GFSNE_925_temp_084.txt.gz
Temp
16 16 16 16 16 16 15 16 14 12 13 15 15 16 16 17 16 16 16 16 15 15 14 13 13 12 12 12 11 11 10 10 10 9 9 8 7 7
16 16 16 16 15 15 14 15 14 13 13 15 15 15 16 16 16 16 16 16 15 15 14 13 12 12 12 11 10 10 10 9 9 9 8 7 7 5
15 15 15 15 15 15 14 14 14 13 12 13 14 15 15 15 15 15 15 15 15 15 15 14 12 11 11 10 9 9 8 8 8 7 7 6 6 5
13 13 14 14 13 14 14 13 13 13 13 13 13 13 13 14 14 14 13 14 14 14 13 13 12 11 11 9 8 7 7 6 6 6 6 5 5 5
13 13 13 13 13 13 13 13 12 13 12 12 13 13 13 12 13 13 12 13 13 12 12 12 10 9 7 6 6 5 5 5 5 4 4 4 4 3
12 12 13 12 12 12 12 12 12 12 12 11 12 12 12 12 11 11 10 11 11 10 10 9 9 8 7 6 4 4 3 2 3 3 3 3 3 3
12 12 12 12 13 13 12 12 12 12 12 12 12 12 11 9 10 10 9 9 9 8 8 7 7 6 5 4 4 2 1 1 1 2 3 3 2 2
11 11 11 12 12 13 13 13 13 12 12 12 12 12 12 9 10 10 8 6 4 5 5 5 4 4 4 3 1 1 1 -1 0 1 1 2 2 1
11 11 11 11 11 12 12 12 12 13 13 13 12 12 12 12 9 8 8 7 5 3 3 1 1 1 0 1 0 -0 -1 -1 0 1 1 1 1 0
11 11 11 11 11 12 12 12 12 12 12 11 11 11 10 9 9 7 5 3 1 0 1 -1 -0 0 0 -0 -1 -1 -2 -1 1 1 1 0 -1 -1
12 12 11 11 12 12 12 11 9 7 6 6 6 5 5 5 5 5 1 1 -2 -2 -2 -1 -2 -2 -1 -1 -2 -2 -1 -1 -1 -1 -2 -2 -2 -2
12 11 12 12 12 12 12 8 4 1 -0 -1 -1 -1 -0 -0 1 1 0 -1 -2 -4 -5 -4 -4 -3 -3 -2 -3 -3 -2 -2 -2 -3 -3 -3 -3 -4
10 10 9 9 9 9 8 4 1 -1 -3 -3 -4 -5 -5 -5 -4 -4 -3 -2 -4 -6 -6 -4 -5 -5 -4 -4 -3 -3 -3 -3 -3 -4 -3 -4 -4 -5
4 1 0 1 1 1 1 -1 -2 -3 -4 -5 -5 -6 -6 -6 -5 -5 -5 -5 -5 -5 -6 -6 -6 -7 -6 -6 -6 -6 -6 -6 -6 -6 -6 -6 -6 -6
-2 -3 -4 -4 -4 -4 -4 -5 -4 -5 -5 -6 -6 -6 -6 -6 -6 -6 -7 -7 -7 -7 -8 -8 -8 -8 -7 -7 -7 -7 -7 -7 -7 -7 -7 -7 -7 -7
-6 -6 -5 -4 -5 -5 -5 -5 -5 -6 -6 -7 -7 -7 -7 -7 -8 -8 -8 -8 -8 -9 -9 -9 -8 -8 -9 -8 -8 -8 -8 -8 -8 -8 -9 -9 -9 -8
-5 -5 -6 -6 -7 -7 -7 -7 -6 -7 -7 -7 -8 -8 -9 -9 -10 -10 -10 -9 -9 -9 -9 -10 -10 -10 -9 -9 -9 -9 -10 -10 -10 -10 -10 -10 -10 -9
-6 -6 -7 -7 -8 -8 -8 -8 -8 -8 -9 -9 -9 -10 -10 -10 -10 -11 -11 -11 -11 -11 -11 -11 -11 -11 -11 -11 -11 -11 -11 -12 -11 -11 -11 -11 -11 -10
-7 -7 -8 -8 -9 -9 -9 -10 -10 -10 -10 -10 -11 -11 -11 -11 -12 -12 -12 -12 -12 -12 -12 -12 -12 -12 -13 -14 -13 -12 -12 -12 -12 -12 -12 -12 -11 -11
-9 -9 -9 -10 -10 -10 -10 -11 -11 -11 -11 -12 -12 -12 -12 -13 -13 -13 -14 -14 -13 -13 -13 -13 -13 -13 -13 -14 -13 -13 -13 -13 -13 -13 -13 -12 -12 -12
-11 -11 -11 -11 -11 -11 -11 -12 -12 -12 -12 -13 -13 -13 -13 -14 -14 -14 -14 -14 -14 -14 -14 -14 -14 -14 -14 -14 -14 -14 -14 -13 -13 -13 -13 -13 -12 -12
-12 -12 -12 -12 -12 -13 -13 -13 -13 -14 -14 -14 -15 -15 -15 -15 -15 -15 -15 -15 -15 -15 -15 -15 -15 -15 -15 -14 -14 -15 -14 -14 -13 -13 -12 -12 -12 -11
-14 -14 -14 -14 -14 -14 -14 -14 -15 -15 -15 -15 -15 -16 -15 -16 -16 -16 -16 -16 -16 -16 -16 -16 -16 -16 -16 -15 -15 -15 -15 -15 -14 -14 -13 -12 -12 -11

GFSNE_925_temp_087.txt.gz
Temp
15 15 15 15 16 16 16 16 14 12 11 15 15 17 17 17 16 16 16 16 17 16 16 15 15 14 14 13 13 12 12 12 11 10 10 10 9 9
13 14 15 15 16 16 15 15 15 14 13 15 15 16 17 16 16 16 16 16 16 15 15 15 15 14 13 13 12 12 11 10 10 10 10 10 9 9
14 14 15 15 15 15 15 14 13 13 12 13 14 15 15 15 15 15 16 16 16 15 15 15 14 14 14 13 13 11 11 10 9 9 9 8 7 7
13 13 13 14 13 14 14 14 13 14 14 12 13 13 14 14 15 15 15 15 15 15 15 14 14 14 13 12 11 11 10 9 8 9 8 7 6 6
13 13 13 13 13 12 12 12 12 12 12 11 13 13 13 13 13 13 13 13 13 14 14 14 14 13 13 12 10 10 9 7 7 5 5 5 4 4
13 13 13 12 12 12 12 12 12 11 11 11 12 12 13 12 12 11 11 12 12 12 12 13 12 12 12 10 9 8 7 6 5 4 4 3 2 2
12 12 12 12 12 12 12 12 11 11 12 12 12 12 12 11 10 12 10 10 11 11 11 11 11 10 9 8 7 6 5 4 3 2 1 -0 0 0
11 11 11 12 12 12 12 13 13 11 11 12 12 12 12 12 12 10 11 10 8 10 9 7 8 6 6 6 5 4 3 1 1 0 0 -0 -0 0
11 11 11 10 11 10 11 12 12 12 12 12 11 11 12 12 12 10 10 11 9 8 7 3 3 3 3 3 3 2 0 0 -0 -1 -1 -1 -1 -0
11 11 10 11 10 10 10 10 10 11 11 11 10 11 11 11 11 11 10 9 4 2 2 -0 -0 -0 -0 -0 -0 -0 -0 -1 -1 -2 -2 -2 -2 -2
11 11 11 11 11 11 10 9 9 8 9 8 8 7 7 8 8 8 6 3 -1 -2 -0 -1 -2 -2 -2 -1 -1 -2 -2 -2 -3 -3 -3 -2 -2 -3
11 11 11 11 11 11 10 9 9 6 5 1 1 -1 -0 1 2 3 3 3 -2 -4 -3 -3 -4 -3 -4 -4 -4 -4 -5 -5 -5 -4 -5 -5 -5 -4
10 10 9 10 11 10 10 9 8 2 -2 -2 -3 -4 -4 -3 -3 -2 -2 -1 -4 -6 -6 -4 -5 -5 -5 -6 -6 -6 -6 -6 -6 -6 -6 -6 -6 -6
0 0 -0 1 1 1 2 4 1 -3 -4 -5 -6 -6 -6 -6 -6 -5 -5 -5 -6 -7 -6 -5 -7 -6 -7 -7 -7 -7 -7 -6 -7 -7 -7 -7 -7 -7
-4 -4 -5 -5 -4 -4 -4 -5 -5 -5 -6 -6 -7 -7 -7 -7 -7 -7 -7 -7 -7 -8 -8 -8 -8 -8 -8 -8 -8 -8 -8 -8 -8 -8 -8 -8 -8 -8
-5 -5 -5 -5 -6 -5 -5 -4 -5 -5 -6 -7 -8 -8 -8 -8 -8 -8 -8 -8 -9 -9 -10 -10 -10 -9 -9 -9 -9 -9 -9 -9 -9 -9 -10 -10 -10 -9
-6 -6 -7 -7 -7 -8 -8 -8 -8 -8 -8 -8 -9 -9 -10 -10 -10 -10 -10 -10 -10 -10 -11 -11 -11 -10 -10 -10 -10 -11 -11 -11 -11 -12 -11 -11 -11 -11
-7 -8 -8 -8 -9 -9 -9 -9 -9 -9 -9 -10 -10 -10 -10 -11 -11 -11 -11 -11 -12 -12 -12 -12 -12 -12 -11 -11 -11 -12 -12 -13 -12 -12 -12 -12 -12 -12
-9 -9 -9 -10 -10 -10 -10 -10 -11 -11 -10 -11 -11 -11 -12 -12 -12 -13 -13 -12 -12 -12 -13 -13 -13 -13 -13 -14 -13 -13 -13 -13 -13 -13 -13 -13 -13 -13
-11 -11 -11 -11 -11 -11 -11 -11 -11 -12 -12 -12 -12 -13 -13 -13 -14 -14 -14 -14 -13 -13 -14 -14 -14 -14 -14 -16 -14 -14 -13 -14 -14 -14 -14 -14 -13 -13
-12 -12 -12 -12 -12 -12 -12 -13 -13 -13 -13 -13 -14 -14 -14 -14 -14 -14 -14 -15 -15 -15 -15 -15 -15 -15 -15 -15 -15 -15 -14 -14 -14 -14 -14 -14 -14 -13
-13 -13 -13 -13 -13 -13 -13 -13 -14 -14 -14 -15 -15 -15 -15 -15 -15 -15 -15 -15 -16 -16 -16 -16 -15 -15 -15 -15 -15 -15 -15 -14 -12 -12 -13 -13 -13 -13
-14 -14 -14 -14 -14 -14 -14 -14 -15 -15 -16 -16 -16 -16 -16 -16 -16 -16 -16 -16 -16 -16 -16 -16 -16 -16 -16 -16 -16 -16 -16 -16 -15 -15 -14 -13 -13 -12

GFSNE_925_temp_093.txt.gz
Temp
14 15 15 15 15 14 15 15 16 16 17 15 14 16 17 16 16 15 15 17 17 17 17 16 16 16 15 15 15 15 15 14 14 14 13 12 12 11
13 15 15 14 14 14 15 14 14 14 15 16 16 16 16 16 15 15 15 16 16 16 16 16 17 16 15 15 15 15 15 15 15 14 14 13 12 12
13 14 15 15 13 14 14 13 13 12 12 13 14 15 15 15 15 16 15 15 15 15 16 16 16 16 15 15 15 15 15 15 15 14 14 13 13 12
13 12 13 14 13 12 12 12 12 13 12 12 13 14 13 14 15 15 15 15 15 15 15 15 16 16 16 16 16 16 15 15 14 14 13 13 12 12
13 13 13 13 13 13 13 13 12 12 12 12 13 14 14 14 13 13 13 13 13 14 14 15 15 14 15 15 15 15 15 14 13 13 12 12 12 11
13 13 13 13 13 13 13 13 13 13 13 12 12 13 14 14 14 13 13 13 12 12 12 12 13 14 14 13 13 13 13 12 12 11 12 12 11 11
12 12 12 12 13 13 13 13 13 13 13 13 12 13 13 13 13 13 12 12 13 13 13 12 11 11 11 12 11 12 12 12 11 11 10 10 10 10
12 12 12 13 13 13 12 13 13 13 12 13 13 13 13 13 13 13 13 13 12 12 11 11 11 11 10 9 9 9 10 9 8 8 7 7 6 6
12 12 12 12 12 11 11 11 12 12 12 13 12 11 12 12 12 12 12 11 12 12 12 11 10 8 6 6 7 6 6 5 5 4 3 2 1 0
11 11 11 11 11 11 11 10 10 11 11 11 9 10 10 10 10 10 10 11 11 9 9 8 3 -1 -1 -0 -0 0 0 0 -0 -1 -1 -1 -1 -1
10 10 9 9 9 10 10 10 10 10 9 9 6 5 4 3 5 7 6 6 8 2 1 0 -1 -4 -5 -5 -5 -4 -3 -3 -3 -3 -2 -2 -2 -2
5 3 1 2 3 5 7 7 7 7 6 3 2 -0 0 0 1 1 1 2 2 -0 -2 -2 -3 -3 -5 -6 -5 -4 -4 -4 -4 -4 -4 -4 -4 -4
-3 -4 -4 -3 -0 2 4 4 3 1 -1 -1 -2 -3 -4 -5 -5 -4 -4 -2 -4 -6 -5 -4 -4 -4 -5 -6 -6 -6 -6 -6 -6 -6 -6 -6 -6 -6
-5 -6 -6 -6 -6 -5 -4 -4 -3 -3 -5 -6 -7 -8 -7 -8 -8 -7 -7 -7 -7 -7 -6 -5 -6 -5 -5 -5 -5 -7 -7 -7 -7 -8 -8 -8 -7 -7
-6 -7 -7 -6 -6 -6 -5 -5 -5 -6 -7 -8 -8 -8 -8 -8 -7 -8 -8 -8 -7 -7 -7 -7 -7 -7 -6 -6 -6 -7 -7 -9 -9 -9 -9 -9 -9 -9
-6 -7 -7 -7 -8 -8 -7 -7 -7 -7 -7 -7 -8 -8 -8 -9 -8 -8 -8 -8 -9 -10 -10 -10 -9 -8 -8 -9 -8 -9 -9 -9 -9 -10 -10 -10 -10 -10
-7 -7 -7 -7 -7 -7 -8 -8 -8 -8 -8 -8 -8 -8 -9 -9 -9 -9 -9 -9 -9 -9 -10 -10 -10 -10 -10 -9 -10 -10 -10 -10 -10 -11 -10 -10 -10 -10
-7 -7 -8 -8 -8 -8 -9 -9 -9 -9 -9 -9 -9 -9 -9 -9 -9 -10 -10 -10 -10 -10 -10 -11 -10 -9 -10 -11 -11 -10 -11 -11 -11 -11 -11 -11 -10 -10
-9 -9 -9 -9 -10 -10 -10 -10 -11 -11 -11 -10 -10 -10 -10 -11 -10 -10 -10 -10 -10 -11 -11 -11 -11 -10 -8 -9 -11 -12 -12 -12 -12 -11 -11 -11 -10 -10
-10 -10 -11 -11 -11 -11 -11 -11 -12 -12 -12 -12 -12 -12 -12 -11 -11 -11 -11 -11 -11 -11 -11 -12 -12 -12 -12 -11 -12 -12 -13 -13 -12 -11 -11 -10 -10 -11
-12 -12 -12 -12 -12 -12 -13 -13 -14 -14 -14 -13 -13 -13 -13 -13 -13 -13 -13 -14 -12 -12 -12 -12 -13 -14 -13 -12 -11 -11 -12 -13 -13 -13 -12 -11 -10 -9
-14 -14 -14 -14 -14 -14 -15 -14 -14 -15 -14 -15 -15 -15 -14 -14 -14 -14 -14 -13 -13 -13 -13 -13 -14 -13 -13 -12 -12 -12 -11 -12 -12 -12 -13 -13 -12 -9
-16 -16 -16 -16 -16 -16 -16 -16 -16 -16 -16 -16 -16 -16 -16 -15 -15 -15 -15 -15 -15 -14 -14 -14 -13 -13 -13 -13 -13 -12 -12 -12 -11 -11 -10 -11 -12 -12

GFSNE_925_temp_096.txt.gz
Temp
13 14 15 15 15 16 16 17 18 18 18 18 16 15 15 15 14 16 15 16 16 16 15 15 15 15 15 15 15 15 15 15 14 14 13 13 13 12
12 13 14 15 14 15 15 16 16 16 16 17 17 17 16 15 15 16 15 17 16 16 16 15 15 15 15 15 15 15 15 15 15 15 14 14 14 13
13 13 13 14 14 15 14 14 13 13 13 13 14 15 16 16 15 15 15 16 16 16 16 16 16 15 15 16 15 15 16 15 16 16 16 15 15 14
14 12 13 13 13 13 13 13 13 13 12 12 13 14 16 15 14 15 16 16 15 16 16 16 16 16 16 16 16 16 16 15 15 15 15 15 15 14
13 13 14 13 13 13 13 12 12 12 13 13 14 15 15 16 15 15 15 15 15 14 14 15 16 16 15 16 16 15 15 15 14 14 14 14 14 13
12 13 13 13 13 13 14 14 15 15 15 14 15 15 15 15 15 16 16 15 15 15 15 14 14 14 14 14 14 14 13 13 13 13 13 13 12 12
12 12 12 13 13 14 15 15 15 15 15 15 15 15 15 16 16 16 16 16 15 15 15 15 15 14 13 12 12 12 12 12 12 12 11 10 10 9
13 13 13 13 13 13 14 14 14 14 14 14 14 14 14 15 15 15 15 14 13 13 13 13 14 14 13 13 12 11 11 10 9 9 8 8 8 8
13 13 14 14 14 13 13 13 13 13 13 13 13 13 13 13 13 13 13 13 13 13 12 13 10 7 2 2 2 6 7 7 6 6 5 4 4 3
10 9 10 10 10 10 11 11 11 11 11 10 9 9 9 9 9 9 8 7 8 8 8 4 2 -1 -1 -1 -1 -1 0 0 -0 -1 -1 -1 -1 -1
4 3 4 4 4 6 7 8 9 9 6 7 6 3 1 2 3 4 5 4 6 6 3 2 -0 -2 -3 -4 -4 -4 -3 -3 -2 -2 -2 -2 -2 -2
-1 -1 -0 1 3 4 5 5 5 3 2 1 -0 -0 -1 -1 -0 0 -0 -0 2 1 -3 -2 -2 -3 -5 -6 -5 -5 -5 -5 -5 -5 -4 -4 -4 -4
-4 -4 -5 -4 -2 -0 0 -1 -2 -3 -3 -3 -4 -5 -4 -4 -4 -4 -4 -4 -4 -6 -5 -4 -4 -3 -4 -5 -5 -6 -6 -5 -5 -6 -6 -5 -5 -5
-4 -5 -5 -6 -5 -5 -4 -4 -3 -3 -4 -5 -6 -7 -6 -7 -7 -7 -7 -7 -7 -7 -6 -5 -4 -3 -3 -4 -4 -6 -6 -7 -7 -7 -7 -7 -7 -7
-6 -6 -6 -5 -5 -6 -6 -5 -5 -5 -5 -5 -6 -6 -6 -6 -6 -6 -6 -7 -7 -8 -8 -7 -5 -5 -3 -3 -4 -5 -5 -7 -7 -7 -7 -8 -8 -7
-5 -5 -6 -6 -6 -6 -6 -6 -6 -6 -5 -5 -5 -6 -6 -6 -6 -6 -6 -6 -5 -6 -8 -8 -7 -6 -5 -5 -5 -5 -6 -6 -6 -7 -8 -8 -8 -8
-5 -5 -5 -5 -5 -5 -6 -6 -6 -6 -6 -6 -6 -6 -6 -6 -6 -6 -6 -5 -5 -5 -6 -6 -7 -8 -7 -6 -6 -6 -6 -6 -7 -8 -8 -7 -7 -7
-5 -5 -6 -6 -6 -6 -6 -7 -7 -7 -7 -7 -6 -6 -6 -7 -6 -6 -6 -6 -6 -6 -6 -7 -6 -6 -6 -8 -8 -7 -7 -7 -8 -8 -8 -7 -7 -7
-6 -6 -7 -7 -7 -7 -7 -7 -8 -9 -8 -8 -8 -8 -7 -7 -7 -7 -7 -7 -7 -7 -7 -8 -7 -7 -5 -5 -7 -10 -9 -9 -9 -8 -7 -7 -7 -7
-7 -7 -8 -8 -8 -8 -8 -9 -9 -9 -9 -9 -9 -9 -9 -8 -8 -8 -8 -8 -8 -8 -8 -8 -9 -10 -8 -8 -9 -9 -10 -11 -10 -9 -8 -8 -8 -7
-9 -9 -9 -9 -9 -10 -10 -11 -11 -11 -11 -10 -10 -10 -10 -10 -10 -10 -10 -11 -10 -9 -9 -9 -10 -12 -10 -9 -8 -8 -9 -10 -11 -11 -10 -10 -8 -6
-11 -11 -11 -11 -11 -11 -12 -11 -11 -11 -11 -11 -12 -12 -11 -11 -11 -11 -11 -10 -10 -10 -10 -10 -10 -10 -10 -9 -9 -9 -8 -9 -9 -9 -10 -10 -10 -7
-12 -12 -13 -13 -13 -13 -13 -13 -13 -13 -13 -13 -13 -12 -13 -12 -12 -12 -12 -11 -12 -11 -11 -10 -10 -10 -9 -9 -10 -8 -8 -8 -8 -7 -7 -9 -10 -9

GFSNE_925_temp_102.txt.gz
Temp
15 16 16 16 16 16 16 17 17 14 15 17 16 16 16 15 16 16 15 15 15 15 15 15 15 15 15 15 15 14 14 14 14 14 14 14 14 14
14 14 15 15 14 15 15 15 15 15 14 18 17 17 17 16 16 15 15 15 15 15 15 15 16 16 16 15 16 15 15 15 15 16 15 15 15 15
13 13 13 13 14 14 15 15 15 15 13 15 16 17 17 16 16 16 16 15 15 15 16 16 16 16 16 16 15 16 16 16 16 16 16 16 15 15
12 12 12 13 14 14 14 15 15 15 15 14 16 16 16 16 16 16 16 16 15 15 15 15 16 16 16 16 16 16 15 15 15 15 15 15 15 15
12 12 12 12 13 14 14 14 15 15 14 14 14 15 15 15 15 15 15 15 15 16 15 16 16 16 16 16 16 16 15 15 15 14 14 14 14 13
11 11 11 12 12 13 13 13 14 15 15 14 13 13 13 14 14 15 15 15 15 15 16 16 16 15 14 14 14 12 13 14 14 13 13 14 13 11
12 12 12 12 14 13 13 14 13 13 13 13 13 13 13 14 13 14 14 14 15 15 14 14 12 11 9 8 9 9 10 10 9 9 8 8 9 8
13 13 13 14 14 13 13 13 13 13 12 12 13 13 12 14 12 12 12 12 11 13 11 11 11 10 6 4 3 5 5 4 4 5 5 5 4 5
11 11 11 11 11 11 11 11 11 10 11 10 10 10 8 9 8 9 8 8 8 8 7 7 6 5 1 -0 -2 -1 0 1 1 1 1 1 1 1
7 7 7 7 7 8 8 7 7 6 6 6 5 3 2 3 4 4 4 4 4 4 4 3 1 -1 -2 -2 -3 -2 -1 -2 -1 -1 -1 -1 -1 -1
1 2 2 2 3 5 5 4 1 -1 -0 -0 0 0 1 2 3 4 2 2 2 -2 -1 -1 -2 -2 -3 -3 -3 -4 -3 -3 -3 -2 -2 -2 -3 -3
-2 -2 -1 -0 1 2 3 2 -1 -3 -1 -2 -2 -1 -1 -1 0 -0 -1 -1 -2 -2 -4 -3 -2 -2 -3 -4 -4 -4 -4 -4 -5 -5 -5 -3 -3 -3
-3 -4 -4 -3 -2 -1 -1 -1 -3 -3 -3 -3 -4 -4 -4 -4 -4 -3 -3 -3 -4 -5 -4 -3 -3 -2 -2 -3 -4 -5 -5 -6 -6 -6 -5 -5 -5 -5
-4 -4 -4 -5 -4 -4 -4 -4 -3 -4 -4 -4 -4 -5 -5 -5 -4 -4 -4 -4 -5 -5 -4 -3 -4 -3 -2 -2 -3 -4 -4 -5 -4 -5 -5 -5 -5 -6
-5 -5 -5 -5 -5 -4 -4 -4 -4 -4 -4 -4 -5 -5 -5 -5 -4 -4 -4 -4 -4 -4 -4 -5 -4 -4 -4 -4 -4 -4 -4 -4 -4 -5 -6 -6 -6 -5
-4 -4 -5 -5 -5 -5 -5 -5 -5 -5 -5 -5 -5 -5 -5 -5 -5 -4 -4 -3 -3 -4 -4 -4 -4 -4 -4 -4 -4 -4 -4 -4 -5 -6 -6 -6 -6 -5
-4 -5 -5 -5 -5 -5 -6 -6 -6 -5 -5 -5 -5 -5 -5 -4 -5 -5 -4 -4 -4 -4 -5 -5 -5 -5 -5 -5 -6 -6 -6 -7 -7 -7 -7 -7 -6 -6
-5 -5 -5 -6 -6 -6 -6 -7 -7 -6 -6 -6 -6 -6 -6 -6 -6 -6 -5 -5 -5 -5 -6 -7 -7 -6 -6 -7 -7 -8 -8 -8 -8 -8 -8 -8 -8 -7
-6 -6 -6 -6 -7 -7 -7 -8 -8 -7 -7 -8 -8 -8 -7 -7 -7 -8 -8 -7 -6 -6 -6 -7 -8 -9 -9 -10 -8 -8 -8 -8 -8 -8 -9 -9 -9 -7
-7 -7 -7 -7 -8 -8 -8 -9 -9 -9 -9 -9 -9 -9 -8 -8 -8 -8 -9 -8 -8 -7 -7 -8 -8 -9 -10 -10 -8 -8 -8 -8 -8 -8 -8 -8 -7 -6
-8 -9 -9 -9 -9 -9 -10 -9 -10 -10 -10 -10 -10 -10 -10 -9 -9 -9 -9 -9 -9 -8 -8 -8 -8 -8 -8 -8 -7 -8 -7 -7 -7 -7 -7 -7 -8 -7
-10 -10 -11 -11 -11 -11 -11 -11 -11 -11 -11 -11 -11 -11 -11 -10 -10 -10 -10 -10 -10 -10 -10 -9 -8 -8 -7 -7 -7 -8 -7 -7 -7 -7 -7 -7 -7 -9
-12 -12 -12 -12 -12 -12 -12 -12 -13 -13 -13 -13 -12 -12 -11 -11 -11 -11 -11 -11 -10 -11 -12 -11 -10 -9 -9 -8 -8 -8 -8 -8 -8 -9 -8 -7 -7 -7

GFSNE_925_temp_105.txt.gz
Temp
13 14 13 13 15 16 16 16 15 12 13 16 16 17 16 16 16 16 15 15 15 15 15 15 15 15 14 14 14 14 14 14 14 13 13 13 13 13
13 13 13 14 14 16 16 16 15 14 13 16 17 17 17 17 16 16 16 16 16 15 15 15 15 15 15 15 16 16 15 15 15 14 14 13 13 13
13 13 13 14 14 15 15 15 15 15 13 15 15 16 16 16 16 16 16 16 16 16 16 16 16 16 16 16 16 16 16 15 15 15 15 15 15 14
13 13 13 13 13 14 14 15 15 15 14 13 15 15 16 16 16 16 15 15 15 15 15 15 16 16 16 16 15 15 14 14 14 13 13 13 12 12
13 13 13 13 13 13 14 14 14 14 14 13 14 15 15 15 15 15 15 15 16 15 15 15 15 14 14 14 14 13 13 13 13 13 12 12 12 11
12 13 12 12 13 12 13 13 13 14 13 13 14 14 14 14 14 14 14 14 14 14 14 13 13 13 12 12 11 11 10 11 8 8 9 9 9 8
12 12 12 12 12 12 13 12 12 13 13 13 12 12 13 13 13 13 13 13 12 12 11 10 9 9 8 7 6 6 5 5 5 5 5 5 5 5
11 11 11 11 11 11 11 12 12 12 12 12 12 12 12 13 12 11 10 11 10 10 9 8 7 5 3 3 1 2 2 2 2 2 2 3 3 2
10 10 10 10 10 10 10 11 11 11 11 11 11 10 8 7 7 8 8 8 7 7 6 5 2 2 0 -2 -1 -1 -1 -1 -0 -0 -0 -1 -1 -1
6 6 6 6 7 7 8 7 6 6 6 7 6 4 4 4 4 4 4 4 3 3 3 2 -0 -3 -3 -3 -3 -3 -2 -2 -2 -2 -2 -2 -2 -3
1 2 2 3 4 4 6 4 2 -0 0 1 1 0 0 2 4 3 2 2 1 -3 -1 -1 -2 -3 -4 -4 -4 -4 -4 -4 -5 -5 -5 -3 -3 -4
-2 -1 1 2 3 3 2 1 -1 -2 -1 -1 -1 -1 -1 -1 1 1 -0 -0 -1 -3 -3 -2 -3 -3 -4 -5 -4 -4 -4 -4 -5 -5 -5 -5 -5 -5
-3 -3 -3 -1 0 1 0 -0 -2 -3 -3 -3 -4 -3 -3 -3 -3 -2 -2 -2 -4 -5 -4 -3 -2 -2 -3 -4 -4 -4 -4 -4 -5 -5 -5 -5 -5 -5
-4 -4 -4 -3 -3 -3 -3 -4 -4 -4 -4 -4 -4 -5 -4 -4 -4 -4 -4 -4 -4 -4 -4 -3 -3 -3 -3 -3 -4 -4 -4 -4 -5 -5 -6 -5 -5 -6
-5 -4 -4 -4 -4 -4 -4 -4 -4 -4 -5 -5 -5 -5 -5 -4 -4 -4 -4 -4 -4 -5 -4 -4 -4 -4 -3 -4 -4 -4 -4 -6 -6 -6 -6 -6 -6 -6
-5 -5 -5 -5 -5 -5 -5 -5 -5 -5 -5 -5 -5 -5 -5 -4 -4 -4 -4 -4 -5 -5 -5 -5 -5 -4 -4 -5 -5 -6 -6 -7 -7 -7 -7 -7 -6 -6
-5 -5 -6 -6 -6 -6 -6 -6 -6 -6 -6 -5 -5 -5 -5 -5 -5 -5 -4 -5 -5 -6 -6 -6 -6 -6 -5 -5 -7 -7 -8 -8 -8 -8 -8 -8 -7 -7
-6 -7 -7 -7 -8 -8 -8 -7 -7 -7 -7 -7 -7 -7 -6 -6 -6 -6 -6 -6 -6 -7 -7 -7 -7 -7 -7 -7 -7 -8 -8 -8 -8 -8 -8 -8 -8 -6
-7 -7 -8 -8 -8 -9 -9 -9 -9 -8 -8 -8 -8 -8 -8 -8 -8 -8 -8 -7 -7 -8 -8 -8 -8 -9 -10 -12 -8 -8 -8 -8 -8 -8 -7 -7 -8 -6
-8 -9 -9 -9 -9 -9 -9 -10 -9 -9 -9 -9 -9 -9 -9 -9 -9 -9 -9 -9 -9 -8 -8 -8 -8 -8 -9 -11 -9 -8 -7 -8 -7 -8 -8 -7 -7 -6
-10 -10 -10 -10 -10 -10 -10 -10 -10 -11 -11 -10 -10 -10 -10 -10 -10 -10 -10 -10 -10 -10 -10 -10 -9 -8 -8 -8 -8 -8 -8 -7 -8 -8 -8 -8 -8 -7
-11 -11 -12 -12 -12 -12 -12 -11 -11 -12 -12 -12 -12 -11 -11 -11 -11 -10 -11 -11 -11 -11 -11 -11 -10 -9 -9 -8 -8 -9 -9 -9 -8 -8 -8 -8 -8 -8
-13 -13 -13 -13 -13 -13 -13 -13 -13 -13 -13 -13 -13 -13 -13 -12 -12 -12 -11 -12 -12 -12 -12 -12 -11 -11 -10 -10 -10 -10 -10 -10 -10 -10 -8 -8 -7 -7

GFSNE_925_temp_111.txt.gz
Temp
14 14 13 12 12 13 14 14 14 13 12 13 14 15 15 15 16 16 15 16 16 15 15 15 15 14 14 14 14 14 14 14 13 14 13 13 13 13
13 13 13 12 12 13 14 14 15 13 13 14 14 16 16 16 16 16 16 16 16 15 15 15 15 14 14 14 14 14 14 14 13 13 13 13 13 13
13 13 13 13 12 13 13 13 13 13 13 13 14 15 16 16 16 15 15 15 16 16 15 15 15 14 14 14 13 13 13 13 13 13 13 13 12 12
13 13 12 12 12 12 12 12 12 13 13 13 13 15 15 16 16 15 15 16 16 15 14 14 14 13 14 14 14 14 14 13 13 13 12 13 13 12
13 13 13 12 12 12 12 12 12 12 12 12 14 15 14 14 14 15 15 15 13 12 14 14 14 14 14 14 13 13 13 13 12 11 10 10 9 9
13 13 13 12 12 12 12 12 12 11 11 11 12 12 12 13 14 14 14 14 12 12 12 12 12 11 11 10 9 8 8 8 8 7 7 7 6 6
12 12 12 12 13 13 12 12 12 11 11 11 11 11 12 12 13 13 14 13 11 11 9 7 6 5 5 4 4 4 4 4 4 4 4 5 5 4
12 12 12 12 12 12 12 12 12 11 11 11 11 11 11 12 12 13 12 11 8 8 7 4 3 3 2 1 1 2 2 2 2 2 2 2 2 1
11 12 12 12 12 12 11 11 11 11 11 11 11 11 11 12 11 11 11 11 10 6 5 -0 1 -0 -0 -1 -1 -1 -1 -1 -0 -0 -0 -1 -1 -1
8 9 9 10 10 10 9 8 7 7 8 9 10 9 9 9 9 9 9 8 5 4 4 -1 -2 -2 -2 -2 -2 -3 -3 -3 -3 -3 -2 -3 -3 -3
3 4 5 5 6 7 7 4 1 0 0 3 3 4 4 5 5 5 5 4 0 -0 1 -1 -3 -4 -3 -3 -4 -4 -4 -5 -5 -4 -4 -4 -4 -4
-0 1 2 2 2 2 4 2 -1 -2 -0 -0 -1 0 1 1 2 2 2 2 -1 -1 -1 -1 -3 -3 -4 -4 -4 -4 -4 -5 -4 -4 -4 -5 -5 -5
-3 -3 -2 -1 -0 0 -0 -1 -2 -2 -2 -1 -2 -2 -1 -1 -1 0 1 1 -0 -3 -2 -2 -3 -3 -3 -5 -5 -5 -5 -5 -5 -5 -5 -5 -5 -6
-4 -4 -4 -2 -2 -2 -2 -3 -2 -2 -3 -3 -4 -5 -5 -4 -4 -3 -3 -3 -3 -3 -3 -2 -2 -2 -3 -5 -5 -6 -5 -5 -5 -5 -5 -5 -6 -5
-5 -5 -4 -3 -3 -4 -4 -3 -3 -4 -5 -5 -5 -5 -6 -5 -5 -4 -4 -4 -4 -4 -3 -3 -2 -3 -3 -4 -6 -6 -6 -6 -6 -6 -6 -6 -6 -6
-4 -5 -5 -5 -5 -5 -5 -5 -5 -5 -6 -6 -6 -5 -5 -5 -5 -5 -5 -4 -5 -5 -5 -5 -4 -4 -5 -5 -5 -7 -7 -7 -7 -7 -7 -6 -7 -7
-6 -6 -6 -6 -7 -7 -7 -7 -7 -6 -6 -6 -5 -5 -5 -5 -5 -5 -5 -6 -7 -8 -7 -6 -6 -5 -6 -6 -7 -8 -8 -8 -8 -8 -8 -7 -6 -7
-6 -8 -9 -8 -9 -9 -8 -8 -8 -8 -8 -7 -7 -7 -7 -7 -7 -7 -7 -7 -8 -8 -8 -8 -7 -7 -7 -8 -7 -8 -8 -8 -8 -8 -8 -8 -8 -6
-8 -9 -10 -10 -10 -9 -9 -9 -10 -9 -8 -8 -8 -8 -8 -8 -8 -8 -8 -8 -9 -9 -9 -9 -9 -8 -9 -10 -8 -8 -9 -8 -9 -8 -8 -9 -9 -8
-10 -10 -10 -10 -10 -10 -10 -10 -10 -9 -9 -9 -9 -9 -9 -9 -9 -9 -9 -9 -10 -10 -10 -10 -10 -10 -10 -10 -9 -8 -9 -9 -9 -9 -9 -9 -9 -8
-11 -11 -11 -11 -11 -11 -11 -11 -11 -11 -11 -11 -11 -11 -10 -10 -10 -10 -10 -10 -10 -11 -12 -11 -11 -10 -9 -9 -10 -9 -9 -9 -10 -10 -10 -10 -10 -9
-12 -12 -13 -12 -12 -12 -12 -12 -12 -12 -12 -12 -12 -12 -11 -11 -11 -11 -12 -12 -12 -12 -13 -12 -11 -10 -10 -11 -11 -11 -11 -11 -10 -9 -10 -11 -11 -10
-13 -13 -14 -14 -14 -14 -14 -13 -13 -14 -14 -14 -13 -13 -13 -12 -12 -12 -13 -13 -13 -13 -13 -13 -12 -12 -12 -12 -12 -12 -12 -12 -12 -11 -10 -10 -10 -9

GFSNE_925_temp_114.txt.gz
Temp
14 14 13 13 13 13 13 14 14 13 12 12 12 13 13 15 15 15 15 15 15 15 14 14 14 14 14 14 13 13 13 13 13 13 12 12 12 12
14 13 13 13 13 13 12 12 13 14 13 13 13 14 15 15 16 15 15 16 16 15 15 15 15 15 14 14 14 14 13 13 13 13 12 12 12 12
13 13 13 13 13 12 12 12 12 13 13 12 14 14 13 15 15 15 15 15 15 15 15 15 15 14 14 14 14 13 13 13 13 13 13 13 13 13
13 12 13 13 12 12 11 12 12 13 13 12 12 12 13 14 15 14 14 14 14 14 14 14 14 14 14 14 13 13 13 13 13 13 13 13 12 12
12 13 13 13 12 12 12 11 11 11 12 12 12 12 12 13 13 13 13 12 13 12 13 12 13 13 13 13 13 13 13 13 13 12 10 11 11 8
12 12 13 13 12 12 12 12 11 11 11 12 11 12 12 13 13 13 12 12 12 12 13 12 12 11 11 10 9 9 9 10 9 8 8 7 7 7
12 12 13 13 13 13 12 11 11 11 11 11 11 11 11 11 12 12 12 11 9 9 8 7 6 6 5 5 5 5 5 5 4 5 4 4 4 3
12 12 12 12 12 12 12 11 11 11 11 11 11 11 11 12 11 12 11 9 7 7 6 3 3 4 2 2 1 1 2 1 1 0 1 1 2 1
12 12 12 12 12 12 12 12 12 12 12 12 12 11 12 11 11 11 11 11 10 7 6 -1 1 1 -1 -1 -1 -0 -0 -0 -1 -1 -0 -1 -1 -0
9 10 10 11 11 11 11 10 9 9 9 10 11 11 11 10 11 11 11 9 5 4 4 -2 -1 -2 -2 -2 -2 -2 -1 -2 -1 -2 -2 -1 -2 -2
3 5 6 7 6 8 8 6 4 3 2 4 5 7 8 8 7 8 7 5 0 0 1 -1 -3 -3 -3 -3 -4 -4 -4 -4 -4 -5 -4 -4 -4 -4
-1 -0 0 2 2 3 4 3 0 -1 0 0 0 1 2 3 3 4 4 4 -1 -1 -1 -1 -4 -3 -4 -5 -5 -5 -5 -5 -5 -4 -4 -4 -4 -4
-3 -3 -3 -1 -1 0 1 0 -2 -2 -2 -1 -2 -2 -1 -0 1 1 1 2 1 -2 -2 -0 -3 -3 -4 -5 -6 -6 -5 -5 -5 -4 -4 -4 -5 -5
-5 -5 -4 -4 -4 -3 -3 -3 -3 -3 -3 -4 -5 -6 -6 -5 -5 -3 -1 -1 -1 -2 -3 -1 -2 -2 -4 -5 -6 -7 -6 -5 -5 -5 -5 -5 -5 -5
-5 -5 -4 -4 -4 -4 -4 -3 -3 -3 -4 -6 -7 -7 -7 -6 -5 -6 -5 -5 -5 -5 -4 -3 -2 -3 -2 -4 -6 -6 -6 -6 -6 -6 -6 -6 -5 -6
-4 -5 -5 -6 -5 -5 -5 -6 -6 -6 -6 -7 -7 -7 -7 -6 -5 -4 -4 -5 -5 -6 -5 -4 -4 -3 -5 -5 -5 -7 -7 -7 -7 -7 -7 -7 -7 -7
-5 -5 -6 -6 -7 -7 -7 -7 -7 -7 -7 -7 -7 -7 -8 -6 -6 -5 -5 -6 -8 -8 -7 -6 -5 -5 -6 -6 -8 -8 -8 -8 -8 -8 -8 -7 -7 -7
-6 -8 -9 -9 -9 -9 -9 -8 -8 -8 -8 -8 -8 -8 -8 -8 -9 -8 -7 -8 -9 -9 -9 -8 -7 -7 -7 -8 -8 -8 -8 -8 -8 -8 -8 -9 -8 -7
-9 -10 -10 -10 -11 -10 -10 -10 -10 -10 -9 -9 -9 -8 -8 -8 -8 -9 -9 -9 -9 -10 -10 -9 -8 -8 -8 -8 -9 -9 -9 -9 -9 -9 -9 -9 -9 -8
-11 -11 -12 -11 -11 -11 -11 -11 -10 -10 -9 -10 -9 -9 -9 -9 -9 -10 -10 -10 -10 -10 -10 -10 -10 -10 -10 -10 -9 -10 -10 -10 -10 -10 -10 -10 -9 -8
-12 -12 -12 -12 -12 -12 -12 -11 -11 -11 -11 -10 -11 -10 -10 -10 -11 -11 -11 -11 -11 -11 -12 -12 -11 -10 -10 -10 -10 -10 -10 -10 -11 -11 -11 -11 -11 -10
-13 -13 -13 -13 -13 -13 -13 -12 -12 -12 -12 -12 -12 -11 -11 -11 -11 -11 -12 -12 -13 -13 -13 -12 -11 -10 -10 -11 -11 -12 -12 -11 -10 -10 -11 -11 -12 -11
-14 -14 -14 -14 -14 -14 -14 -14 -14 -14 -14 -13 -13 -13 -12 -12 -12 -12 -13 -13 -13 -13 -13 -13 -12 -12 -12 -13 -12 -13 -13 -13 -13 -12 -11 -11 -11 -11

GFSNE_925_temp_117.txt.gz
Temp
14 14 14 14 14 14 13 13 14 13 13 13 12 12 13 13 13 14 14 15 14 14 14 14 13 13 13 13 13 13 13 13 13 12 12 12 12 12
14 14 14 14 13 13 13 13 13 13 13 14 12 13 13 12 14 13 14 15 15 15 14 14 14 14 14 14 13 13 13 13 13 12 12 12 12 12
14 14 14 13 13 13 13 13 13 13 13 13 12 12 12 13 12 12 13 14 14 15 14 14 14 14 14 14 14 13 13 13 13 13 13 12 12 12
13 13 13 13 13 13 13 12 12 12 12 11 11 12 13 12 12 13 13 13 12 13 14 14 14 14 14 13 14 13 13 13 13 13 13 13 13 12
13 13 13 13 12 12 12 12 12 12 12 12 11 11 11 12 12 13 12 11 11 13 13 13 14 13 14 13 13 13 13 13 13 13 12 12 11 9
13 13 13 12 12 12 12 12 12 11 11 11 11 11 11 12 12 11 11 10 10 10 11 11 12 12 11 11 11 12 11 12 10 10 9 8 7 6
12 13 12 12 13 12 12 12 11 11 11 11 11 11 11 11 11 11 11 10 9 9 8 7 7 8 9 8 7 8 7 7 6 5 5 5 5 4
12 12 12 13 12 12 12 12 12 12 11 11 12 12 11 11 11 11 11 9 7 7 7 5 5 4 4 3 2 3 3 3 3 2 2 2 3 3
11 12 12 12 12 12 12 11 11 11 11 11 12 12 12 11 11 11 11 10 11 8 7 1 1 1 0 0 0 0 0 -0 -0 -0 -0 0 0 -0
3 6 8 9 10 11 11 10 9 10 10 11 11 11 11 11 11 11 11 10 7 5 5 -1 -1 -2 -1 -2 -2 -2 -1 -2 -2 -3 -2 -2 -2 -2
0 0 2 4 4 6 7 7 5 4 3 6 7 8 9 9 10 10 10 5 1 1 2 -1 -3 -3 -3 -3 -4 -4 -3 -3 -3 -4 -4 -3 -3 -2
-1 -1 -2 -0 1 2 3 2 -0 -1 1 1 1 2 3 4 4 5 5 5 1 0 0 -1 -3 -3 -4 -5 -5 -5 -5 -5 -4 -4 -4 -4 -4 -5
-4 -4 -3 -3 -2 -1 0 0 -2 -2 -3 -2 -3 -2 -1 -0 0 1 2 3 2 -2 -2 -1 -3 -4 -4 -6 -6 -6 -7 -7 -6 -5 -4 -5 -5 -5
-5 -5 -5 -4 -3 -3 -4 -4 -4 -3 -2 -4 -5 -6 -6 -5 -4 -4 -3 -2 -1 -2 -2 -1 -2 -3 -5 -5 -7 -7 -7 -8 -6 -6 -6 -5 -5 -5
-6 -6 -4 -3 -3 -4 -4 -3 -4 -5 -5 -6 -7 -7 -7 -6 -5 -5 -4 -3 -3 -3 -2 -2 -2 -3 -3 -5 -7 -7 -7 -7 -7 -6 -6 -6 -6 -6
-5 -5 -5 -6 -6 -6 -5 -6 -6 -6 -7 -7 -7 -7 -7 -7 -7 -6 -6 -6 -6 -6 -5 -4 -3 -3 -6 -6 -6 -7 -6 -6 -7 -7 -7 -7 -7 -7
-6 -7 -7 -7 -7 -8 -7 -7 -7 -7 -7 -7 -7 -7 -7 -7 -8 -8 -7 -7 -6 -7 -7 -7 -7 -7 -7 -6 -7 -6 -7 -7 -7 -7 -7 -6 -6 -7
-7 -7 -8 -8 -8 -8 -9 -9 -8 -8 -8 -8 -8 -7 -7 -8 -8 -8 -7 -7 -7 -7 -7 -7 -7 -6 -7 -8 -7 -6 -7 -7 -7 -7 -7 -7 -6 -7
-8 -9 -9 -9 -9 -9 -10 -10 -10 -10 -9 -9 -9 -9 -8 -8 -7 -7 -7 -7 -7 -7 -7 -7 -7 -5 -4 -5 -8 -9 -7 -8 -8 -8 -8 -8 -8 -7
-10 -10 -11 -11 -11 -11 -11 -11 -11 -11 -11 -10 -10 -10 -10 -9 -8 -8 -8 -8 -8 -8 -8 -8 -8 -8 -6 -6 -7 -10 -10 -9 -9 -9 -8 -9 -8 -8
-12 -12 -12 -12 -12 -13 -13 -13 -13 -12 -12 -11 -11 -11 -10 -10 -10 -10 -11 -10 -9 -8 -8 -9 -10 -10 -10 -9 -8 -9 -10 -11 -11 -10 -10 -9 -8 -7
-13 -13 -14 -14 -14 -14 -14 -14 -13 -13 -13 -12 -12 -12 -11 -11 -11 -11 -11 -10 -11 -10 -10 -11 -10 -10 -9 -8 -9 -10 -10 -11 -11 -11 -12 -11 -10 -8
-15 -15 -16 -16 -16 -15 -15 -15 -15 -15 -15 -14 -13 -13 -13 -12 -12 -12 -12 -12 -11 -11 -11 -11 -11 -10 -10 -11 -10 -10 -12 -11 -11 -11 -11 -12 -12 -12

GFSNE_925_temp_120.txt.gz
Temp
16 16 15 15 15 15 16 17 16 15 14 14 14 13 13 13 13 14 14 14 14 14 14 14 14 14 13 13 13 13 13 13 13 13 13 13 13 12
15 15 15 15 14 14 15 14 14 14 14 14 14 14 13 13 12 13 13 13 14 14 14 14 14 13 13 13 13 13 13 13 13 13 13 12 12 12
15 15 15 15 14 14 14 14 14 13 13 14 13 13 12 12 12 12 12 13 14 14 14 14 14 14 13 13 13 13 13 13 13 13 12 12 12 12
15 15 14 14 14 14 14 14 13 13 13 13 12 12 12 12 12 12 12 13 14 14 14 14 14 14 13 13 13 13 13 13 13 13 13 13 12 12
14 14 14 14 14 14 13 13 15 14 13 12 12 11 11 12 12 11 11 12 13 12 13 13 14 13 14 13 13 13 14 14 14 13 13 12 12 12
14 14 14 13 13 14 14 15 14 13 12 12 12 11 11 11 11 11 11 11 11 11 11 11 12 13 13 13 13 13 13 13 13 12 12 12 11 10
13 13 13 13 13 14 14 13 13 12 12 12 12 11 11 11 11 11 11 10 8 9 8 8 9 9 8 9 9 10 10 10 10 10 9 8 7 6
12 13 13 13 13 13 13 12 12 12 12 12 12 11 11 11 11 11 11 8 7 7 6 4 5 5 5 5 6 6 7 7 7 6 5 4 4 3
6 8 9 11 12 12 12 12 12 12 12 12 12 12 12 11 11 11 11 10 11 8 7 2 2 3 2 2 1 1 2 2 3 2 2 1 1 0
2 3 4 5 6 8 10 9 8 8 10 10 11 11 11 11 11 11 11 10 8 7 6 -0 -0 -1 -1 -1 -1 -1 -1 -2 -2 -2 -1 -1 -1 -1
-2 -1 1 2 3 4 5 6 3 2 2 4 6 6 8 10 10 11 10 7 2 2 3 1 -2 -3 -3 -3 -3 -3 -3 -3 -3 -3 -3 -3 -3 -4
-3 -3 -2 -1 1 3 2 0 -1 -2 -1 0 1 2 3 3 5 6 7 9 2 0 1 1 -2 -3 -4 -4 -5 -5 -5 -5 -5 -5 -6 -5 -5 -5
-5 -5 -5 -4 -3 -1 1 -0 -3 -2 -2 -2 -3 -3 -1 -1 -0 1 2 3 2 -0 -0 2 -2 -3 -4 -6 -6 -6 -6 -6 -7 -7 -6 -5 -4 -3
-5 -5 -5 -5 -4 -3 -4 -3 -2 -3 -3 -4 -6 -6 -6 -6 -6 -4 -3 -2 -1 -2 -2 -1 -2 -3 -5 -6 -7 -8 -7 -7 -7 -7 -7 -6 -4 -4
-6 -6 -6 -5 -5 -5 -4 -4 -4 -4 -5 -6 -7 -7 -7 -6 -5 -5 -4 -4 -3 -3 -3 -2 -2 -2 -3 -6 -7 -7 -7 -7 -7 -6 -6 -5 -5 -5
-5 -5 -5 -5 -5 -6 -5 -5 -5 -5 -6 -6 -6 -6 -6 -5 -5 -5 -5 -5 -6 -6 -4 -3 -3 -3 -5 -6 -6 -6 -7 -6 -7 -7 -7 -6 -6 -6
-5 -5 -5 -5 -5 -5 -5 -6 -6 -6 -6 -6 -6 -6 -6 -6 -6 -6 -6 -6 -5 -6 -7 -7 -6 -6 -6 -6 -6 -7 -7 -7 -7 -6 -6 -5 -5 -5
-5 -5 -5 -5 -5 -5 -6 -6 -6 -6 -6 -6 -6 -6 -6 -6 -7 -7 -7 -6 -6 -6 -6 -7 -7 -7 -7 -7 -6 -5 -5 -5 -6 -6 -6 -5 -4 -5
-5 -6 -6 -6 -6 -6 -6 -6 -7 -7 -7 -7 -6 -6 -7 -7 -7 -7 -7 -7 -7 -7 -7 -7 -6 -4 -4 -5 -7 -7 -5 -6 -6 -5 -5 -5 -5 -5
-7 -7 -7 -7 -7 -7 -7 -7 -7 -7 -7 -7 -7 -7 -7 -6 -6 -6 -6 -7 -7 -6 -6 -6 -6 -4 -3 -4 -6 -9 -8 -7 -6 -6 -6 -6 -6 -7
-8 -9 -9 -9 -9 -9 -9 -9 -9 -9 -9 -8 -8 -8 -8 -7 -7 -8 -8 -8 -6 -6 -6 -7 -9 -8 -7 -7 -7 -8 -9 -9 -9 -9 -8 -6 -5 -5
-10 -10 -11 -11 -11 -11 -10 -10 -9 -9 -9 -9 -9 -8 -8 -8 -8 -8 -8 -8 -7 -7 -8 -8 -8 -7 -7 -5 -6 -8 -8 -9 -10 -10 -10 -10 -9 -5
-13 -12 -13 -13 -13 -12 -12 -12 -12 -11 -11 -10 -10 -10 -9 -9 -9 -9 -9 -9 -8 -8 -8 -8 -8 -7 -7 -7 -7 -8 -10 -9 -9 -8 -9 -10 -11 -10

GFSNE_925_temp_123.txt.gz
Temp
17 17 17 18 18 18 18 17 18 17 19 19 17 17 14 13 13 13 13 13 14 14 14 14 14 14 14 14 13 13 13 13 13 13 13 13 13 12
16 17 17 17 17 17 16 16 16 17 18 19 17 17 14 13 13 13 13 13 13 13 14 14 14 14 14 14 14 13 13 13 13 13 13 13 12 12
16 15 16 17 16 16 15 15 15 16 16 17 16 15 15 13 13 13 13 13 12 13 13 13 14 14 14 14 14 13 13 13 13 13 13 13 12 12
15 17 15 15 15 15 15 15 15 16 16 15 15 14 14 13 13 13 13 12 12 12 13 13 13 14 14 14 14 13 13 13 13 13 12 13 12 13
15 15 15 15 15 15 15 14 15 15 14 14 15 14 13 13 12 12 12 12 12 12 13 13 13 13 13 13 13 13 13 13 13 13 13 13 12 13
14 14 15 15 14 14 14 14 14 14 15 15 14 13 12 12 12 12 12 12 11 11 12 12 13 12 12 13 13 13 13 13 13 13 13 13 12 13
11 13 14 14 14 14 14 14 14 14 14 13 13 12 12 11 12 12 12 11 10 11 10 11 12 12 11 11 12 12 12 12 13 12 13 12 11 11
5 8 10 11 12 13 13 13 14 14 13 12 12 12 12 12 11 11 11 8 8 8 9 7 8 9 8 8 8 10 11 9 9 9 10 10 10 8
-0 1 3 5 6 9 11 12 12 12 12 12 12 12 12 12 11 11 11 10 11 8 8 3 4 5 5 4 5 6 6 6 6 6 5 5 6 5
-2 -2 -1 0 3 5 5 7 7 7 7 8 9 10 10 11 11 11 11 10 8 8 7 1 1 1 1 1 1 1 2 3 2 2 2 2 2 2
-3 -3 -3 -2 0 1 3 2 0 -0 1 1 1 2 3 7 9 11 10 7 2 4 5 3 -1 -2 -1 -1 -1 -1 -1 -1 -1 -1 -1 -1 -1 -1
-3 -4 -4 -4 -2 -0 -0 0 0 -1 -1 0 1 1 2 2 4 5 5 8 4 1 3 2 -2 -2 -4 -4 -3 -3 -2 -3 -3 -3 -3 -3 -4 -4
-4 -4 -4 -5 -4 -3 -3 -3 -3 -2 -2 -1 -1 -1 -2 -0 -1 -0 1 2 3 0 1 3 -1 -2 -4 -5 -5 -5 -4 -5 -5 -5 -5 -5 -5 -5
-4 -4 -5 -5 -5 -4 -4 -4 -3 -4 -4 -5 -5 -5 -5 -4 -4 -3 -2 -2 -1 -1 -1 0 -1 -2 -5 -6 -7 -7 -6 -6 -5 -6 -6 -6 -5 -4
-4 -4 -4 -4 -5 -4 -5 -4 -4 -5 -5 -5 -5 -6 -5 -5 -5 -4 -4 -4 -2 -2 -1 -1 -1 -3 -3 -6 -7 -7 -7 -7 -6 -6 -6 -7 -7 -6
-4 -4 -4 -4 -4 -4 -4 -4 -4 -4 -4 -4 -5 -5 -5 -5 -4 -4 -4 -5 -5 -6 -4 -4 -3 -2 -5 -6 -6 -6 -6 -6 -6 -6 -6 -6 -6 -6
-4 -4 -4 -4 -4 -4 -4 -5 -5 -5 -5 -5 -5 -5 -5 -5 -5 -5 -5 -5 -5 -5 -6 -6 -5 -5 -5 -5 -6 -6 -6 -6 -6 -6 -6 -6 -6 -6
-4 -4 -5 -5 -5 -5 -5 -5 -6 -6 -5 -5 -5 -5 -5 -5 -6 -6 -6 -5 -5 -5 -6 -6 -6 -6 -6 -6 -6 -6 -6 -6 -7 -7 -6 -6 -5 -6
-5 -5 -5 -5 -5 -5 -5 -5 -5 -6 -5 -5 -5 -5 -5 -5 -5 -6 -6 -6 -6 -6 -6 -5 -5 -5 -4 -6 -7 -6 -6 -7 -7 -6 -5 -5 -4 -4
-6 -6 -6 -6 -6 -6 -7 -7 -7 -7 -6 -6 -6 -6 -5 -5 -5 -5 -5 -5 -5 -6 -6 -6 -6 -5 -5 -6 -7 -9 -7 -7 -6 -6 -5 -5 -5 -5
-8 -7 -8 -8 -8 -8 -8 -8 -8 -8 -7 -7 -7 -7 -6 -6 -6 -6 -7 -6 -4 -4 -5 -6 -7 -6 -7 -6 -8 -9 -9 -8 -8 -8 -7 -6 -5 -5
-10 -9 -10 -10 -10 -10 -9 -9 -9 -9 -8 -8 -8 -7 -7 -6 -6 -6 -6 -6 -5 -6 -6 -6 -6 -6 -5 -4 -6 -7 -8 -9 -9 -9 -9 -8 -8 -6
-12 -12 -11 -12 -12 -12 -11 -11 -11 -10 -10 -10 -9 -9 -8 -8 -7 -7 -7 -7 -6 -6 -6 -6 -6 -6 -5 -5 -6 -7 -9 -8 -8 -8 -10 -9 -9 -9

GFSNE_925_temp_126.txt.gz
Temp
17 17 17 16 17 18 18 18 17 15 15 18 17 17 17 16 16 15 15 15 14 14 14 14 14 14 14 13 13 13 13 13 13 13 13 13 13 13
16 16 16 17 16 17 17 17 17 16 16 18 18 18 17 16 16 16 15 15 14 13 14 14 14 14 14 13 13 13 13 13 13 13 13 13 13 12
16 16 16 17 16 16 15 17 17 16 15 16 16 17 16 16 16 15 15 13 13 13 13 13 13 13 14 14 13 13 13 13 13 13 13 13 13 12
16 16 15 17 16 17 16 16 16 16 15 15 16 16 16 15 15 14 13 13 13 13 13 13 13 13 13 13 13 13 13 13 13 13 13 13 13 13
14 15 15 15 15 15 15 15 15 15 15 14 15 15 15 14 14 14 13 13 13 13 13 13 13 12 12 13 13 13 13 13 13 13 13 13 13 12
9 11 12 11 13 15 15 15 15 15 14 14 14 14 14 14 13 13 12 12 12 12 12 12 12 12 11 12 12 13 13 13 13 13 13 13 13 13
5 6 6 6 7 9 10 13 14 14 14 14 14 13 13 12 12 12 12 12 12 12 12 12 12 12 12 12 12 12 13 13 13 12 12 12 13 12
1 2 3 5 6 7 8 9 11 11 13 13 13 13 12 12 12 12 12 10 8 10 9 9 10 10 11 11 12 12 12 12 12 12 12 12 12 12
-2 -2 -1 0 2 5 6 5 6 6 7 9 10 12 12 12 12 11 11 10 11 11 9 6 6 6 7 7 10 11 11 11 11 11 11 11 10 9
-3 -4 -3 -3 -1 2 2 3 2 4 3 3 3 3 4 7 8 11 11 11 10 9 8 2 2 2 2 3 4 6 6 7 7 7 8 9 8 7
-3 -4 -4 -4 -3 -0 0 -0 -0 -1 -0 0 1 2 2 2 3 7 8 8 3 5 6 6 1 -0 0 0 1 1 1 2 2 3 3 4 3 3
-4 -4 -4 -4 -4 -4 -3 -3 -3 -3 -2 -1 -1 -0 0 0 2 2 3 4 4 2 5 5 -1 0 -3 -2 -2 -1 -1 -1 -0 0 0 -0 0 0
-4 -4 -4 -4 -4 -4 -4 -4 -5 -4 -3 -3 -3 -3 -3 -3 -2 -1 0 1 2 0 0 2 -1 -2 -3 -5 -4 -3 -3 -3 -3 -3 -2 -2 -2 -2
-4 -4 -4 -4 -4 -4 -4 -4 -4 -4 -4 -4 -5 -4 -4 -4 -4 -4 -3 -2 -1 -1 0 1 -1 -2 -5 -6 -6 -5 -4 -4 -4 -4 -5 -5 -5 -5
-4 -4 -4 -4 -4 -4 -4 -4 -4 -4 -4 -4 -5 -5 -5 -4 -4 -4 -4 -3 -3 -2 -1 -0 1 -1 -2 -6 -7 -6 -6 -6 -5 -5 -5 -5 -5 -5
-4 -4 -4 -4 -4 -4 -5 -5 -5 -5 -5 -5 -5 -5 -5 -5 -4 -4 -5 -5 -5 -5 -4 -3 -3 -2 -5 -5 -5 -6 -6 -6 -6 -6 -5 -5 -5 -5
-4 -4 -5 -5 -5 -5 -5 -5 -5 -5 -5 -5 -5 -5 -5 -5 -5 -5 -5 -5 -6 -6 -6 -6 -5 -5 -6 -6 -6 -6 -6 -6 -6 -6 -6 -6 -6 -5
-5 -5 -6 -6 -5 -5 -6 -6 -6 -6 -6 -5 -5 -5 -5 -5 -6 -5 -5 -5 -5 -5 -5 -5 -6 -6 -6 -6 -6 -6 -6 -6 -6 -6 -6 -6 -5 -6
-6 -7 -7 -7 -7 -7 -7 -7 -7 -7 -6 -6 -6 -6 -6 -6 -5 -6 -6 -6 -6 -6 -6 -6 -5 -5 -5 -6 -7 -6 -6 -6 -6 -6 -6 -6 -6 -6
-8 -8 -9 -9 -9 -9 -9 -9 -8 -7 -7 -7 -7 -6 -6 -6 -6 -6 -6 -5 -6 -6 -7 -7 -6 -5 -6 -7 -8 -9 -7 -7 -7 -7 -7 -7 -6 -6
-10 -10 -10 -11 -11 -11 -10 -10 -9 -9 -9 -8 -8 -7 -7 -6 -6 -6 -6 -5 -5 -6 -7 -7 -7 -6 -6 -7 -8 -10 -9 -8 -7 -7 -7 -6 -6 -6
-12 -12 -12 -12 -12 -12 -12 -11 -11 -11 -11 -10 -9 -9 -8 -8 -7 -7 -7 -6 -6 -6 -6 -6 -6 -6 -6 -7 -8 -9 -9 -8 -8 -8 -8 -7 -7 -7
-13 -13 -13 -13 -14 -14 -14 -13 -13 -13 -13 -12 -12 -10 -9 -9 -8 -8 -7 -7 -7 -6 -6 -6 -6 -6 -6 -7 -8 -9 -9 -9 -8 -9 -8 -8 -8 -8

GFSNE_925_temp_129.txt.gz
Temp
17 17 17 17 18 18 17 17 15 15 14 17 18 17 17 17 17 17 16 16 16 15 15 14 14 14 13 13 13 13 13 13 13 13 13 13 13 13
16 16 17 16 16 17 17 16 15 14 14 16 18 18 17 17 17 17 17 16 16 16 16 15 14 14 13 13 13 13 13 13 13 13 13 13 13 13
16 16 15 15 15 16 16 16 18 14 13 16 17 16 17 17 17 16 17 16 15 15 15 15 14 14 13 13 13 13 13 13 13 13 13 13 13 13
13 15 15 15 15 16 14 14 14 14 15 16 16 16 15 16 17 16 16 15 15 15 14 14 14 13 13 13 13 13 13 13 13 13 13 13 13 13
8 7 7 10 11 11 13 14 15 15 15 14 15 15 15 15 15 15 15 15 15 14 14 13 14 13 13 13 12 13 13 13 13 13 13 13 13 13
4 4 3 4 4 7 7 10 12 14 14 14 14 14 14 15 15 14 13 13 13 13 13 13 14 13 12 13 12 12 12 12 12 13 13 13 13 13
2 2 1 2 3 4 4 6 8 9 12 14 14 14 13 13 13 13 13 12 12 12 12 13 12 12 12 12 12 12 12 12 12 12 12 12 12 12
-2 -1 -1 1 2 2 2 3 3 4 6 6 10 13 15 13 13 12 12 12 10 12 11 11 12 11 11 11 12 12 12 12 11 12 12 12 12 12
-3 -3 -3 -1 1 1 1 1 1 1 2 2 2 2 2 2 5 10 12 12 12 12 10 9 9 8 8 9 9 9 10 11 11 12 12 12 12 11
-4 -4 -4 -4 -3 -1 -0 -1 -1 -1 -1 -0 0 -1 1 1 2 3 5 6 9 11 10 6 6 6 6 5 6 6 7 9 11 11 11 11 11 11
-4 -4 -4 -4 -4 -3 -2 -3 -2 -2 -2 -2 -1 -1 -0 0 1 3 3 3 5 6 7 8 3 2 2 2 3 3 4 4 6 8 10 9 9 8
-4 -4 -4 -4 -4 -4 -4 -4 -4 -4 -3 -2 -2 -2 -2 -1 -1 -1 -2 -1 1 3 4 4 1 2 -2 -1 -0 -0 -0 1 2 2 2 3 4 5
-4 -4 -4 -4 -4 -4 -4 -4 -4 -4 -3 -4 -3 -3 -3 -3 -3 -3 -3 -3 -3 0 0 1 -0 -1 -2 -4 -3 -2 -1 -2 -1 -1 -1 -0 0 2
-4 -4 -4 -4 -4 -4 -4 -4 -4 -4 -4 -4 -5 -5 -5 -4 -4 -4 -4 -4 -3 -3 -1 -1 -0 0 -4 -5 -5 -4 -4 -3 -3 -3 -3 -3 -2 -1
-4 -4 -4 -4 -5 -5 -5 -5 -5 -5 -5 -6 -6 -6 -5 -5 -4 -4 -4 -4 -4 -3 -2 -1 -1 -1 -1 -4 -6 -6 -5 -5 -4 -4 -4 -4 -3 -3
-5 -5 -5 -5 -5 -6 -6 -6 -6 -6 -6 -6 -6 -5 -5 -5 -5 -5 -5 -5 -5 -5 -5 -4 -3 -2 -4 -5 -5 -6 -5 -6 -5 -5 -5 -5 -5 -4
-6 -6 -7 -7 -7 -7 -7 -7 -6 -6 -6 -6 -6 -6 -5 -5 -5 -5 -5 -5 -5 -6 -6 -6 -6 -5 -6 -6 -6 -6 -6 -6 -6 -6 -5 -6 -5 -5
-8 -9 -9 -9 -9 -9 -9 -8 -7 -7 -7 -6 -6 -6 -6 -6 -6 -6 -5 -6 -6 -6 -6 -5 -6 -6 -6 -6 -6 -6 -6 -6 -6 -6 -6 -6 -5 -5
-10 -10 -11 -11 -11 -11 -10 -10 -9 -9 -8 -7 -7 -7 -6 -6 -6 -6 -6 -6 -6 -6 -6 -6 -5 -6 -6 -6 -7 -6 -6 -6 -6 -6 -6 -6 -6 -6
-12 -12 -12 -12 -12 -12 -12 -12 -11 -10 -10 -10 -9 -8 -7 -7 -7 -7 -6 -6 -6 -6 -6 -6 -6 -6 -6 -7 -9 -9 -6 -6 -6 -6 -6 -6 -6 -6
-13 -13 -13 -13 -13 -13 -13 -13 -13 -12 -12 -11 -11 -10 -9 -8 -7 -7 -6 -6 -6 -7 -7 -7 -7 -6 -7 -7 -9 -10 -9 -7 -7 -7 -7 -7 -7 -7
-13 -14 -14 -15 -14 -14 -14 -14 -15 -14 -14 -13 -12 -11 -11 -9 -9 -8 -8 -7 -7 -6 -6 -6 -6 -7 -7 -8 -9 -10 -10 -10 -9 -8 -7 -7 -6 -7
-13 -14 -14 -15 -15 -16 -16 -16 -16 -16 -15 -15 -14 -13 -12 -11 -10 -9 -9 -8 -8 -8 -7 -6 -6 -7 -7 -8 -9 -9 -9 -9 -9 -8 -8 -8 -8 -8

GFSNE_925_temp_132.txt.gz
Temp
17 17 17 18 18 18 18 17 16 14 14 15 16 18 17 17 17 18 17 17 17 16 15 15 15 14 14 13 13 13 13 13 13 13 13 13 12 12
16 16 17 16 17 17 17 17 16 15 14 16 16 17 16 15 15 16 17 17 17 16 16 15 15 14 14 14 13 13 13 13 13 13 13 13 13 12
16 16 16 16 16 16 16 15 15 15 13 15 16 17 16 16 15 16 16 15 16 17 16 16 15 14 14 14 13 13 13 13 13 13 13 13 13 13
11 13 13 14 15 14 15 14 14 14 13 14 15 15 15 15 16 16 17 16 17 17 17 16 15 15 14 14 13 13 13 12 13 13 13 13 13 13
5 4 5 8 9 10 10 12 12 13 13 13 14 14 15 16 16 16 16 16 15 16 16 16 15 14 14 13 13 13 13 12 12 13 13 13 13 13
1 4 1 3 4 5 5 7 8 10 11 13 14 14 14 14 14 14 13 13 13 15 15 15 14 13 12 12 12 13 13 13 12 12 12 12 13 13
-1 -1 -1 0 1 1 3 3 5 6 7 8 11 13 14 13 13 14 13 14 13 13 14 13 13 13 12 12 12 12 12 12 12 12 12 12 12 12
-2 -2 -1 -1 1 0 -0 0 1 2 2 3 5 5 6 4 6 6 11 13 12 12 13 12 12 12 12 12 11 12 12 12 12 12 12 12 12 12
-3 -3 -3 -3 -1 -1 -1 -1 -1 -1 -1 -1 -0 -1 -1 -1 0 1 4 5 11 11 12 11 11 11 12 11 11 11 11 12 11 11 11 11 12 12
-4 -4 -4 -4 -4 -3 -2 -2 -2 -2 -2 -2 -2 -2 -2 -2 -1 0 2 2 5 7 8 8 10 10 10 9 8 8 10 11 10 10 10 10 11 11
-4 -4 -4 -4 -4 -4 -4 -4 -3 -3 -3 -3 -3 -2 -2 -2 -1 1 -1 -1 3 5 5 5 6 4 4 4 5 5 5 6 7 8 8 9 10 11
-4 -4 -4 -4 -4 -5 -5 -5 -5 -4 -4 -3 -2 -3 -3 -3 -2 -3 -3 -3 -1 1 -0 1 1 2 1 0 0 1 1 2 3 4 6 7 6 6
-5 -5 -5 -4 -5 -5 -5 -5 -5 -4 -4 -4 -4 -4 -3 -3 -4 -4 -4 -4 -4 -3 -1 -2 -1 -0 -0 -2 -2 -2 -1 -1 -0 -0 0 1 2 4
-5 -5 -6 -6 -6 -6 -6 -5 -5 -5 -6 -6 -6 -6 -6 -5 -4 -4 -4 -4 -5 -5 -4 -3 -2 -1 -2 -4 -4 -4 -3 -3 -2 -2 -2 -2 -1 -1
-6 -6 -6 -6 -6 -6 -6 -6 -6 -6 -7 -7 -6 -6 -6 -5 -5 -4 -4 -4 -4 -4 -4 -3 -3 -2 -2 -3 -5 -5 -4 -4 -3 -3 -3 -3 -2 -3
-7 -7 -7 -7 -8 -8 -7 -7 -7 -7 -7 -7 -6 -6 -5 -5 -5 -5 -5 -5 -5 -5 -5 -5 -4 -4 -4 -5 -5 -5 -5 -5 -5 -4 -4 -4 -4 -3
-8 -9 -10 -10 -10 -10 -10 -9 -9 -8 -8 -8 -7 -6 -6 -6 -6 -5 -5 -5 -6 -7 -6 -6 -6 -6 -5 -5 -6 -6 -5 -6 -5 -5 -5 -5 -5 -5
-11 -12 -13 -12 -13 -12 -12 -12 -11 -11 -10 -9 -9 -8 -8 -7 -6 -6 -6 -6 -6 -6 -6 -5 -5 -5 -5 -6 -6 -6 -6 -6 -6 -5 -5 -5 -6 -5
-13 -13 -13 -13 -14 -14 -14 -13 -13 -12 -11 -11 -11 -10 -9 -8 -7 -7 -6 -6 -6 -6 -6 -6 -6 -6 -8 -8 -7 -6 -6 -6 -6 -6 -6 -5 -6 -6
-13 -14 -14 -14 -14 -15 -15 -15 -14 -14 -13 -13 -12 -11 -11 -10 -9 -8 -7 -7 -6 -6 -7 -7 -6 -6 -7 -10 -9 -8 -6 -6 -6 -6 -6 -6 -6 -6
-13 -14 -14 -15 -15 -15 -15 -15 -15 -15 -15 -14 -14 -13 -12 -12 -10 -9 -8 -8 -7 -7 -7 -8 -8 -7 -7 -8 -9 -10 -8 -7 -6 -6 -7 -7 -7 -7
-13 -14 -14 -15 -15 -16 -16 -16 -16 -16 -16 -16 -15 -14 -13 -13 -12 -10 -9 -9 -9 -9 -7 -6 -6 -7 -7 -8 -10 -10 -10 -9 -8 -7 -7 -7 -7 -7
-14 -14 -15 -15 -16 -16 -17 -17 -17 -18 -18 -17 -16 -16 -15 -14 -13 -12 -11 -10 -10 -9 -8 -7 -7 -7 -8 -9 -10 -10 -10 -10 -9 -8 -9 -8 -8 -7

GFSNE_925_temp_135.txt.gz
Temp
16 16 16 16 17 17 18 18 17 15 14 16 17 18 18 18 18 18 17 17 17 17 17 16 15 15 14 14 14 13 13 13 13 13 13 12 13 12
15 16 16 16 16 17 16 17 17 16 15 16 17 17 18 18 18 17 15 17 17 16 16 16 16 15 15 14 14 13 13 13 13 13 13 13 13 13
15 16 16 17 16 17 17 16 16 15 15 16 16 16 16 15 16 16 15 15 17 16 17 17 17 16 15 14 14 14 13 13 13 13 13 13 13 13
11 14 13 14 15 15 15 15 15 15 15 15 14 14 15 16 16 15 16 16 16 16 17 17 17 17 16 16 14 14 13 13 13 13 13 13 13 12
2 3 4 8 8 8 10 13 13 14 14 14 14 14 14 15 15 15 16 17 16 17 17 17 17 16 16 16 15 14 14 13 13 13 12 13 13 12
-0 -0 -0 1 3 4 6 4 8 10 10 12 13 13 14 14 14 14 14 15 15 16 16 15 15 16 15 15 14 14 13 13 13 13 13 12 12 12
0 0 0 -1 -0 1 2 3 3 5 6 8 9 11 10 10 8 8 10 13 13 14 13 13 14 14 15 13 13 13 12 12 12 12 12 12 12 12
-1 -1 -1 -0 -2 -1 -1 1 -1 -0 0 2 3 3 3 1 1 1 3 7 11 12 12 13 13 13 14 13 13 12 12 12 12 12 12 12 12 11
-3 -3 -2 -1 -1 -1 -1 -1 -1 -1 -2 -1 -1 -2 -2 -2 -2 -0 1 2 4 9 6 8 11 12 12 13 12 11 11 11 11 11 11 11 11 11
-4 -4 -4 -4 -4 -3 -3 -3 -3 -3 -3 -3 -3 -3 -3 -3 -3 -2 -1 -1 2 5 5 5 9 9 10 9 9 10 10 10 10 9 9 9 10 11
-5 -4 -5 -5 -5 -5 -4 -4 -4 -3 -3 -3 -3 -4 -3 -4 -3 -1 -3 -2 1 3 2 1 3 4 7 6 6 5 6 5 5 6 6 8 9 9
-5 -6 -5 -5 -6 -6 -6 -6 -6 -6 -4 -3 -2 -3 -3 -3 -5 -5 -5 -4 -3 -0 -2 -2 0 1 2 1 1 1 2 1 2 2 4 5 6 7
-7 -7 -7 -7 -7 -7 -6 -7 -7 -6 -6 -6 -6 -5 -5 -4 -4 -5 -5 -5 -5 -4 -3 -4 -2 -1 -0 -1 -0 -0 -0 -0 0 0 1 2 2 3
-8 -8 -8 -8 -7 -8 -8 -7 -7 -7 -7 -7 -7 -6 -6 -5 -5 -4 -5 -5 -5 -5 -5 -4 -4 -2 -2 -2 -2 -2 -3 -2 -2 -1 -1 -0 0 -0
-9 -9 -8 -8 -8 -8 -8 -8 -8 -8 -8 -9 -8 -7 -6 -6 -5 -4 -4 -5 -5 -5 -5 -5 -5 -4 -4 -3 -3 -4 -4 -4 -3 -3 -3 -2 -2 -2
-10 -10 -10 -10 -10 -10 -10 -10 -10 -10 -10 -10 -9 -8 -7 -6 -6 -6 -6 -5 -5 -4 -5 -5 -5 -5 -5 -5 -5 -5 -5 -5 -5 -4 -4 -4 -4 -3
-12 -13 -13 -14 -14 -13 -13 -12 -12 -12 -12 -11 -11 -10 -9 -8 -7 -6 -6 -6 -6 -7 -6 -5 -6 -6 -6 -6 -6 -6 -5 -5 -5 -5 -5 -5 -5 -4
-13 -14 -14 -15 -15 -15 -15 -15 -14 -14 -13 -13 -12 -12 -11 -11 -9 -8 -7 -7 -7 -6 -7 -6 -6 -5 -5 -6 -7 -6 -6 -6 -6 -5 -5 -5 -6 -5
-13 -14 -14 -15 -15 -16 -16 -16 -16 -16 -15 -14 -14 -14 -13 -12 -11 -10 -9 -8 -8 -7 -7 -7 -7 -7 -9 -9 -7 -7 -6 -6 -6 -6 -5 -5 -6 -6
-13 -14 -15 -15 -15 -16 -16 -17 -16 -16 -16 -16 -15 -15 -14 -14 -13 -12 -11 -10 -9 -8 -8 -7 -8 -8 -8 -8 -9 -8 -6 -6 -6 -6 -6 -6 -6 -6
-13 -14 -14 -15 -15 -16 -16 -17 -17 -17 -17 -17 -16 -16 -15 -15 -14 -13 -12 -10 -10 -10 -10 -8 -8 -8 -8 -8 -9 -9 -8 -7 -6 -6 -7 -7 -7 -7
-13 -13 -14 -15 -15 -16 -17 -17 -18 -18 -18 -18 -18 -17 -16 -15 -15 -14 -13 -12 -11 -11 -10 -8 -7 -7 -8 -8 -9 -10 -10 -9 -8 -7 -7 -7 -7 -7
-13 -14 -14 -15 -15 -16 -16 -17 -18 -18 -19 -19 -19 -18 -17 -16 -15 -14 -13 -12 -12 -11 -11 -10 -8 -8 -9 -9 -10 -10 -10 -10 -10 -10 -10 -9 -8 -7

GFSNE_925_temp_138.txt.gz
Temp
13 15 16 17 17 18 19 19 17 14 14 15 16 17 17 18 18 18 17 18 17 17 17 16 16 15 15 14 14 14 14 13 13 13 13 13 13 12
13 13 15 17 16 16 17 18 18 18 16 17 18 18 18 18 18 18 18 18 17 17 16 16 16 16 15 15 14 14 14 13 13 13 13 13 13 13
13 12 14 16 15 15 16 16 17 16 16 17 17 18 16 17 16 17 17 17 16 16 15 15 16 16 16 15 15 15 14 14 14 13 13 13 13 13
7 11 8 9 13 14 15 14 14 15 16 15 15 16 17 16 16 16 16 16 16 16 16 17 17 17 17 16 15 15 14 14 14 13 13 13 13 13
2 3 2 5 3 6 9 12 14 14 14 15 15 15 16 16 15 15 15 15 15 16 15 16 16 17 17 16 16 16 15 14 14 13 13 13 13 13
1 1 1 0 1 1 3 4 5 9 10 11 14 14 13 13 13 13 13 14 14 14 15 15 16 16 16 15 16 15 15 15 14 13 13 13 13 13
-1 -1 -0 -0 0 1 1 1 2 3 6 6 6 7 4 4 3 3 6 8 12 12 13 13 13 13 14 14 13 14 14 14 14 13 12 12 12 12
-3 -3 -2 -0 -1 -0 0 -1 -1 -1 -0 2 1 1 0 -0 1 0 2 5 8 9 8 10 11 12 12 12 13 13 13 13 13 12 12 12 12 12
-4 -4 -4 -3 -2 -2 -1 -1 0 -1 -1 -2 -2 -1 -1 -1 -2 -1 -1 0 2 4 3 6 9 9 10 10 10 11 10 10 11 11 11 11 11 11
-5 -5 -5 -5 -5 -4 -3 -4 -4 -4 -4 -3 -4 -3 -4 -4 -4 -3 -2 -1 1 0 2 3 5 6 7 7 7 7 8 9 9 9 9 9 10 10
-7 -6 -6 -6 -6 -5 -4 -5 -5 -5 -4 -4 -5 -4 -3 -4 -5 -3 -4 -2 -0 -0 -1 -2 1 2 5 5 5 5 5 5 4 4 4 6 6 7
-8 -8 -7 -7 -7 -7 -7 -7 -7 -7 -6 -4 -4 -4 -4 -4 -4 -5 -5 -5 -4 -2 -4 -3 -1 -0 1 2 3 3 3 3 2 1 1 2 3 4
-10 -9 -9 -8 -8 -8 -9 -8 -8 -7 -7 -6 -6 -6 -5 -5 -4 -5 -5 -5 -5 -4 -4 -5 -4 -2 -1 -0 0 1 1 1 0 0 -0 0 1 2
-12 -11 -11 -10 -10 -10 -10 -10 -8 -7 -8 -8 -8 -9 -8 -7 -6 -5 -5 -5 -5 -6 -6 -6 -6 -5 -5 -3 -2 -1 -1 -1 -2 -2 -1 -1 -1 -1
-12 -12 -11 -10 -10 -10 -12 -11 -10 -10 -11 -11 -11 -10 -9 -8 -6 -5 -5 -5 -5 -5 -6 -6 -6 -7 -6 -5 -4 -4 -5 -3 -3 -3 -3 -2 -2 -2
-12 -12 -12 -12 -12 -12 -12 -12 -13 -13 -13 -13 -13 -11 -10 -8 -8 -7 -7 -6 -6 -5 -5 -6 -6 -6 -7 -6 -6 -6 -5 -5 -4 -4 -4 -4 -4 -4
-14 -14 -14 -15 -15 -15 -15 -14 -14 -14 -14 -14 -14 -13 -12 -11 -10 -9 -9 -8 -8 -7 -7 -5 -5 -6 -6 -6 -6 -6 -6 -6 -5 -5 -5 -5 -5 -5
-14 -15 -15 -16 -16 -17 -17 -17 -17 -16 -16 -15 -15 -14 -14 -13 -13 -11 -10 -10 -10 -9 -8 -7 -7 -6 -6 -7 -6 -7 -6 -6 -6 -5 -5 -6 -6 -6
-14 -14 -15 -16 -16 -17 -17 -18 -18 -18 -17 -17 -17 -17 -16 -15 -14 -13 -12 -12 -11 -10 -9 -8 -8 -8 -7 -6 -7 -7 -7 -6 -6 -6 -6 -6 -6 -6
-13 -14 -15 -15 -16 -17 -17 -17 -18 -18 -18 -18 -18 -17 -17 -17 -16 -14 -13 -13 -12 -11 -10 -9 -9 -9 -8 -8 -8 -8 -7 -6 -6 -6 -7 -6 -6 -6
-13 -13 -14 -15 -15 -16 -17 -17 -17 -18 -18 -18 -18 -18 -18 -18 -16 -16 -15 -13 -13 -12 -11 -10 -10 -9 -8 -8 -9 -9 -9 -8 -7 -7 -7 -7 -7 -7
-13 -13 -14 -14 -15 -15 -16 -17 -17 -18 -18 -18 -19 -19 -18 -18 -18 -17 -16 -15 -14 -13 -12 -11 -10 -9 -8 -8 -8 -10 -10 -9 -8 -7 -7 -7 -7 -6
-13 -13 -13 -14 -15 -15 -16 -17 -17 -18 -19 -19 -19 -19 -19 -18 -18 -18 -17 -16 -15 -14 -13 -12 -12 -10 -10 -9 -9 -10 -10 -10 -10 -9 -8 -8 -7 -7